| time (UTC) | temp F | wind direction | speed MPH | gust MPH | rain 1hr in | rain 24hr in | rain mn in | humidity % | barometer mb |
| 20260905060903 | 53 | 166 | 3.0 | 8.0 | 0.00 | 0.00 | 0.00 | 51 | 1021.3 |
| 20260905060803 | 53 | 163 | 2.0 | 8.0 | 0.00 | 0.00 | 0.00 | 51 | 1021.5 |
| 20260905060703 | 53 | 182 | 2.0 | 8.0 | 0.00 | 0.00 | 0.00 | 51 | 1021.1 |
| 20260905060603 | 53 | 190 | 2.0 | 8.0 | 0.00 | 0.00 | 0.00 | 51 | 1021.3 |
| 20260905060503 | 53 | 177 | 2.0 | 8.0 | 0.00 | 0.00 | 0.00 | 51 | 1021.4 |
| 20260905060403 | 54 | 172 | 4.0 | 8.0 | 0.00 | 0.00 | 0.00 | 51 | 1021.3 |
| 20260905060317 | 53 | 172 | 2.0 | 6.0 | 0.00 | 0.00 | 0.00 | 51 | 1021.4 |
| 20260905060303 | 54 | 176 | 2.0 | 7.0 | 0.00 | 0.00 | 0.00 | 51 | 1021.3 |
| 20260905060203 | 54 | 174 | 0.0 | 7.0 | 0.00 | 0.00 | 0.00 | 51 | 1021.3 |
| 20260905060003 | 54 | 180 | 2.0 | 7.0 | 0.00 | 0.00 | 0.00 | 51 | 1021.3 |
| 20260905055903 | 54 | 179 | 3.0 | 7.0 | 0.00 | 0.00 | 0.00 | 51 | 1021.4 |
| 20260905055803 | 54 | 180 | 3.0 | 7.0 | 0.00 | 0.00 | 0.00 | 50 | 1021.4 |
| 20260905055703 | 53 | 151 | 2.0 | 7.0 | 0.00 | 0.00 | 0.00 | 51 | 1021.1 |
| 20260905055603 | 53 | 133 | 2.0 | 7.0 | 0.00 | 0.00 | 0.00 | 51 | 1021.3 |
| 20260905055503 | 53 | 110 | 2.0 | 7.0 | 0.00 | 0.00 | 0.00 | 52 | 1021.1 |
| 20260905055417 | 53 | 115 | 2.0 | 7.0 | 0.00 | 0.00 | 0.00 | 52 | 1021.2 |
| 20260905055403 | 53 | 119 | 2.0 | 7.0 | 0.00 | 0.00 | 0.00 | 52 | 1021.2 |
| 20260905055306 | 53 | 135 | 1.0 | 7.0 | 0.00 | 0.00 | 0.00 | 52 | 1021.1 |
| 20260905055103 | 53 | 181 | 2.0 | 7.0 | 0.00 | 0.00 | 0.00 | 52 | 1021.2 |
| 20260905055003 | 53 | 181 | 2.0 | 7.0 | 0.00 | 0.00 | 0.00 | 52 | 1021.0 |
| 20260905054903 | 53 | 193 | 3.0 | 7.0 | 0.00 | 0.00 | 0.00 | 52 | 1021.2 |
| 20260905054816 | 53 | 178 | 2.0 | 7.0 | 0.00 | 0.00 | 0.00 | 52 | 1021.1 |
| 20260905054803 | 53 | 167 | 2.0 | 7.0 | 0.00 | 0.00 | 0.00 | 52 | 1021.1 |
| 20260905054703 | 53 | 157 | 2.0 | 6.0 | 0.00 | 0.00 | 0.00 | 52 | 1021.2 |
| 20260905054503 | 53 | 165 | 2.0 | 6.0 | 0.00 | 0.00 | 0.00 | 53 | 1021.1 |
| 20260905054403 | 53 | 186 | 2.0 | 8.0 | 0.00 | 0.00 | 0.00 | 52 | 1021.3 |
| 20260905054305 | 53 | 197 | 2.0 | 8.0 | 0.00 | 0.00 | 0.00 | 52 | 1021.0 |
| 20260905054203 | 53 | 199 | 3.0 | 8.0 | 0.00 | 0.00 | 0.00 | 52 | 1021.1 |
| 20260905054103 | 53 | 200 | 2.0 | 8.0 | 0.00 | 0.00 | 0.00 | 52 | 1021.2 |
| 20260905054003 | 53 | 197 | 2.0 | 8.0 | 0.00 | 0.00 | 0.00 | 52 | 1021.4 |
| 20260905053903 | 53 | 151 | 2.0 | 11.0 | 0.00 | 0.00 | 0.00 | 52 | 1021.3 |
| 20260905053803 | 53 | 142 | 2.0 | 11.0 | 0.00 | 0.00 | 0.00 | 52 | 1021.3 |
| 20260905053703 | 53 | 137 | 3.0 | 11.0 | 0.00 | 0.00 | 0.00 | 52 | 1021.4 |
| 20260905053603 | 53 | 136 | 2.0 | 11.0 | 0.00 | 0.00 | 0.00 | 52 | 1021.2 |
| 20260905053405 | 53 | 147 | 1.0 | 7.0 | 0.00 | 0.00 | 0.00 | 52 | 1021.4 |
| 20260905053303 | 54 | 145 | 1.0 | 7.0 | 0.00 | 0.00 | 0.00 | 51 | 1021.3 |
| 20260905053203 | 54 | 146 | 1.0 | 7.0 | 0.00 | 0.00 | 0.00 | 51 | 1021.3 |
| 20260905053103 | 54 | 156 | 2.0 | 7.0 | 0.00 | 0.00 | 0.00 | 51 | 1021.3 |
| 20260905053003 | 54 | 163 | 1.0 | 9.0 | 0.00 | 0.00 | 0.00 | 51 | 1021.2 |
| 20260905052903 | 54 | 164 | 3.0 | 9.0 | 0.00 | 0.00 | 0.00 | 51 | 1021.3 |
| 20260905052805 | 54 | 159 | 3.0 | 9.0 | 0.00 | 0.00 | 0.00 | 51 | 1021.3 |
| 20260905052703 | 54 | 154 | 3.0 | 9.0 | 0.00 | 0.00 | 0.00 | 51 | 1021.3 |
| 20260905052603 | 54 | 141 | 3.0 | 9.0 | 0.00 | 0.00 | 0.00 | 51 | 1021.3 |
| 20260905052503 | 54 | 134 | 4.0 | 9.0 | 0.00 | 0.00 | 0.00 | 51 | 1021.2 |
| 20260905052403 | 54 | 135 | 1.0 | 7.0 | 0.00 | 0.00 | 0.00 | 51 | 1021.5 |
| 20260905052306 | 54 | 152 | 4.0 | 8.0 | 0.00 | 0.00 | 0.00 | 51 | 1021.1 |
| 20260905052203 | 54 | 168 | 3.0 | 8.0 | 0.00 | 0.00 | 0.00 | 51 | 1021.2 |
| 20260905052103 | 54 | 168 | 2.0 | 8.0 | 0.00 | 0.00 | 0.00 | 50 | 1021.2 |
| 20260905052003 | 54 | 158 | 2.0 | 8.0 | 0.00 | 0.00 | 0.00 | 50 | 1021.2 |
| 20260905051903 | 54 | 168 | 2.0 | 8.0 | 0.00 | 0.00 | 0.00 | 50 | 1021.3 |
| 20260905051819 | 54 | 153 | 4.0 | 8.0 | 0.00 | 0.00 | 0.00 | 50 | 1020.9 |
| 20260905051803 | 54 | 150 | 4.0 | 8.0 | 0.00 | 0.00 | 0.00 | 50 | 1020.9 |
| 20260905051717 | 54 | 133 | 2.0 | 8.0 | 0.00 | 0.00 | 0.00 | 50 | 1021.0 |
| 20260905051703 | 54 | 129 | 2.0 | 8.0 | 0.00 | 0.00 | 0.00 | 50 | 1021.0 |
| 20260905051403 | 54 | 125 | 2.0 | 8.0 | 0.00 | 0.00 | 0.00 | 50 | 1021.0 |
| 20260905051303 | 54 | 123 | 3.0 | 8.0 | 0.00 | 0.00 | 0.00 | 50 | 1021.1 |
| 20260905051203 | 54 | 106 | 4.0 | 8.0 | 0.00 | 0.00 | 0.00 | 50 | 1021.1 |
| 20260905051118 | 54 | 71 | 2.0 | 11.0 | 0.00 | 0.00 | 0.00 | 50 | 1021.0 |
| 20260905051103 | 54 | 51 | 2.0 | 11.0 | 0.00 | 0.00 | 0.00 | 50 | 1021.0 |
| 20260905051017 | 54 | 337 | 2.0 | 11.0 | 0.00 | 0.00 | 0.00 | 50 | 1020.9 |
| 20260905051003 | 54 | 321 | 2.0 | 11.0 | 0.00 | 0.00 | 0.00 | 50 | 1020.9 |
| 20260905050703 | 54 | 228 | 4.0 | 11.0 | 0.00 | 0.00 | 0.00 | 50 | 1021.1 |
| 20260905050603 | 54 | 125 | 2.0 | 9.0 | 0.00 | 0.00 | 0.00 | 50 | 1020.9 |
| 20260905050503 | 54 | 120 | 1.0 | 9.0 | 0.00 | 0.00 | 0.00 | 50 | 1020.9 |
| 20260905050403 | 54 | 105 | 2.0 | 9.0 | 0.00 | 0.00 | 0.00 | 50 | 1020.7 |
| 20260905050317 | 54 | 106 | 2.0 | 9.0 | 0.00 | 0.00 | 0.00 | 50 | 1021.1 |
| 20260905050303 | 54 | 112 | 2.0 | 9.0 | 0.00 | 0.00 | 0.00 | 50 | 1020.9 |
| 20260905050203 | 54 | 127 | 2.0 | 9.0 | 0.00 | 0.00 | 0.00 | 49 | 1021.0 |
| 20260905050005 | 54 | 200 | 2.0 | 11.0 | 0.00 | 0.00 | 0.00 | 50 | 1021.0 |
| 20260905045903 | 54 | 224 | 2.0 | 11.0 | 0.00 | 0.00 | 0.00 | 50 | 1021.0 |
| 20260905045603 | 54 | 270 | 4.0 | 11.0 | 0.00 | 0.00 | 0.00 | 50 | 1021.0 |
| 20260905045503 | 54 | 281 | 2.0 | 8.0 | 0.00 | 0.00 | 0.00 | 50 | 1020.7 |
| 20260905045403 | 54 | 292 | 4.0 | 8.0 | 0.00 | 0.00 | 0.00 | 50 | 1020.9 |
| 20260905045319 | 54 | 303 | 4.0 | 8.0 | 0.00 | 0.00 | 0.00 | 50 | 1020.9 |
| 20260905045305 | 54 | 323 | 4.0 | 8.0 | 0.00 | 0.00 | 0.00 | 50 | 1020.9 |
| 20260905045203 | 54 | 355 | 2.0 | 8.0 | 0.00 | 0.00 | 0.00 | 50 | 1021.0 |
| 20260905045003 | 54 | 53 | 2.0 | 7.0 | 0.00 | 0.00 | 0.00 | 50 | 1020.9 |
| 20260905044917 | 54 | 46 | 2.0 | 7.0 | 0.00 | 0.00 | 0.00 | 50 | 1020.9 |
| 20260905044903 | 54 | 51 | 2.0 | 7.0 | 0.00 | 0.00 | 0.00 | 50 | 1020.9 |
| 20260905044803 | 54 | 341 | 2.0 | 7.0 | 0.00 | 0.00 | 0.00 | 49 | 1020.7 |
| 20260905044617 | 55 | 227 | 1.0 | 8.0 | 0.00 | 0.00 | 0.00 | 49 | 1020.8 |
| 20260905044603 | 55 | 224 | 1.0 | 8.0 | 0.00 | 0.00 | 0.00 | 49 | 1020.8 |
| 20260905044503 | 55 | 204 | 1.0 | 8.0 | 0.00 | 0.00 | 0.00 | 49 | 1021.0 |
| 20260905044303 | 55 | 181 | 4.0 | 11.0 | 0.00 | 0.00 | 0.00 | 48 | 1021.0 |
| 20260905044203 | 55 | 189 | 2.0 | 11.0 | 0.00 | 0.00 | 0.00 | 48 | 1020.9 |
| 20260905044103 | 55 | 193 | 2.0 | 11.0 | 0.00 | 0.00 | 0.00 | 48 | 1021.0 |
| 20260905044003 | 55 | 235 | 2.0 | 11.0 | 0.00 | 0.00 | 0.00 | 48 | 1020.9 |
| 20260905043903 | 55 | 174 | 2.0 | 11.0 | 0.00 | 0.00 | 0.00 | 48 | 1020.8 |
| 20260905043818 | 55 | 89 | 4.0 | 13.0 | 0.00 | 0.00 | 0.00 | 47 | 1020.8 |
| 20260905043804 | 55 | 271 | 4.0 | 13.0 | 0.00 | 0.00 | 0.00 | 47 | 1020.8 |
| 20260905043703 | 55 | 275 | 5.0 | 13.0 | 0.00 | 0.00 | 0.00 | 48 | 1020.9 |
| 20260905043503 | 55 | 205 | 4.0 | 13.0 | 0.00 | 0.00 | 0.00 | 47 | 1021.0 |
| 20260905043403 | 55 | 235 | 3.0 | 13.0 | 0.00 | 0.00 | 0.00 | 47 | 1021.2 |
| 20260905043303 | 55 | 163 | 4.0 | 13.0 | 0.00 | 0.00 | 0.00 | 48 | 1020.8 |
| 20260905043217 | 55 | 138 | 3.0 | 8.0 | 0.00 | 0.00 | 0.00 | 48 | 1020.9 |
| 20260905043203 | 55 | 135 | 3.0 | 8.0 | 0.00 | 0.00 | 0.00 | 48 | 1020.9 |
| 20260905043103 | 55 | 130 | 2.0 | 8.0 | 0.00 | 0.00 | 0.00 | 48 | 1021.1 |
| 20260905042903 | 55 | 135 | 2.0 | 8.0 | 0.00 | 0.00 | 0.00 | 48 | 1020.8 |
| 20260905042818 | 55 | 155 | 3.0 | 8.0 | 0.00 | 0.00 | 0.00 | 48 | 1020.9 |
| 20260905042803 | 55 | 164 | 3.0 | 8.0 | 0.00 | 0.00 | 0.00 | 48 | 1020.9 |
| 20260905042703 | 55 | 194 | 2.0 | 7.0 | 0.00 | 0.00 | 0.00 | 48 | 1021.0 |
| 20260905042503 | 55 | 213 | 2.0 | 7.0 | 0.00 | 0.00 | 0.00 | 48 | 1021.1 |
| 20260905042403 | 55 | 212 | 2.0 | 7.0 | 0.00 | 0.00 | 0.00 | 48 | 1021.1 |
| 20260905042306 | 55 | 188 | 3.0 | 4.0 | 0.00 | 0.00 | 0.00 | 47 | 1020.8 |
| 20260905042203 | 55 | 175 | 2.0 | 6.0 | 0.00 | 0.00 | 0.00 | 47 | 1020.9 |
| 20260905042103 | 56 | 154 | 2.0 | 6.0 | 0.00 | 0.00 | 0.00 | 47 | 1020.9 |
| 20260905042004 | 56 | 178 | 2.0 | 7.0 | 0.00 | 0.00 | 0.00 | 47 | 1020.9 |
| 20260905041917 | 56 | 177 | 2.0 | 7.0 | 0.00 | 0.00 | 0.00 | 46 | 1020.9 |
| 20260905041803 | 56 | 174 | 3.0 | 7.0 | 0.00 | 0.00 | 0.00 | 47 | 1020.8 |
| 20260905041726 | 56 | 174 | 2.0 | 7.0 | 0.00 | 0.00 | 0.00 | 47 | 1021.0 |
| 20260905041603 | 56 | 187 | 2.0 | 7.0 | 0.00 | 0.00 | 0.00 | 47 | 1020.8 |
| 20260905041403 | 56 | 150 | 2.0 | 8.0 | 0.00 | 0.00 | 0.00 | 47 | 1020.9 |
| 20260905041303 | 56 | 126 | 2.0 | 11.0 | 0.00 | 0.00 | 0.00 | 47 | 1020.8 |
| 20260905041203 | 56 | 131 | 4.0 | 11.0 | 0.00 | 0.00 | 0.00 | 46 | 1021.1 |
| 20260905041103 | 56 | 126 | 4.0 | 11.0 | 0.00 | 0.00 | 0.00 | 46 | 1020.8 |
| 20260905041003 | 56 | 150 | 4.0 | 11.0 | 0.00 | 0.00 | 0.00 | 46 | 1020.9 |
| 20260905040903 | 56 | 149 | 4.0 | 11.0 | 0.00 | 0.00 | 0.00 | 46 | 1020.8 |
| 20260905040804 | 56 | 131 | 4.0 | 11.0 | 0.00 | 0.00 | 0.00 | 46 | 1020.9 |
| 20260905040703 | 56 | 118 | 2.0 | 9.0 | 0.00 | 0.00 | 0.00 | 47 | 1020.8 |
| 20260905040603 | 56 | 93 | 2.0 | 9.0 | 0.00 | 0.00 | 0.00 | 47 | 1021.0 |
| 20260905040503 | 56 | 42 | 2.0 | 9.0 | 0.00 | 0.00 | 0.00 | 47 | 1020.8 |
| 20260905040403 | 56 | 59 | 4.0 | 9.0 | 0.00 | 0.00 | 0.00 | 47 | 1021.0 |
| 20260905040303 | 56 | 194 | 4.0 | 7.0 | 0.00 | 0.00 | 0.00 | 47 | 1021.0 |
| 20260905040205 | 56 | 259 | 3.0 | 7.0 | 0.00 | 0.00 | 0.00 | 48 | 1020.9 |
| 20260905040103 | 56 | 273 | 2.0 | 7.0 | 0.00 | 0.00 | 0.00 | 48 | 1020.8 |
| 20260905040003 | 56 | 274 | 1.0 | 7.0 | 0.00 | 0.00 | 0.00 | 48 | 1020.8 |
| 20260905035903 | 56 | 278 | 2.0 | 7.0 | 0.00 | 0.00 | 0.00 | 48 | 1020.9 |
| 20260905035805 | 56 | 285 | 2.0 | 8.0 | 0.00 | 0.00 | 0.00 | 48 | 1020.7 |
| 20260905035704 | 56 | 291 | 2.0 | 8.0 | 0.00 | 0.00 | 0.00 | 48 | 1020.8 |
| 20260905035603 | 56 | 268 | 3.0 | 8.0 | 0.00 | 0.00 | 0.00 | 47 | 1020.9 |
| 20260905035517 | 56 | 247 | 2.0 | 8.0 | 0.00 | 0.00 | 0.00 | 47 | 1020.8 |
| 20260905035403 | 56 | 225 | 3.0 | 11.0 | 0.00 | 0.00 | 0.00 | 47 | 1021.0 |
| 20260905035203 | 56 | 150 | 3.0 | 11.0 | 0.00 | 0.00 | 0.00 | 47 | 1021.0 |
| 20260905035103 | 56 | 154 | 2.0 | 11.0 | 0.00 | 0.00 | 0.00 | 47 | 1020.8 |
| 20260905035003 | 56 | 166 | 2.0 | 11.0 | 0.00 | 0.00 | 0.00 | 47 | 1020.8 |
| 20260905034903 | 56 | 172 | 5.0 | 11.0 | 0.00 | 0.00 | 0.00 | 47 | 1020.9 |
| 20260905034803 | 56 | 179 | 2.0 | 11.0 | 0.00 | 0.00 | 0.00 | 47 | 1021.0 |
| 20260905034718 | 56 | 196 | 4.0 | 11.0 | 0.00 | 0.00 | 0.00 | 47 | 1020.9 |
| 20260905034703 | 56 | 200 | 4.0 | 11.0 | 0.00 | 0.00 | 0.00 | 47 | 1020.8 |
| 20260905034603 | 56 | 202 | 3.0 | 11.0 | 0.00 | 0.00 | 0.00 | 47 | 1021.1 |
| 20260905034418 | 56 | 196 | 4.0 | 7.0 | 0.00 | 0.00 | 0.00 | 47 | 1020.9 |
| 20260905034405 | 56 | 198 | 4.0 | 7.0 | 0.00 | 0.00 | 0.00 | 47 | 1020.9 |
| 20260905034303 | 56 | 220 | 2.0 | 7.0 | 0.00 | 0.00 | 0.00 | 47 | 1020.8 |
| 20260905034118 | 56 | 221 | 2.0 | 8.0 | 0.00 | 0.00 | 0.00 | 47 | 1020.7 |
| 20260905034103 | 56 | 223 | 2.0 | 8.0 | 0.00 | 0.00 | 0.00 | 47 | 1020.7 |
| 20260905034003 | 56 | 239 | 2.0 | 8.0 | 0.00 | 0.00 | 0.00 | 48 | 1020.6 |
| 20260905033803 | 56 | 203 | 4.0 | 9.0 | 0.00 | 0.00 | 0.00 | 47 | 1020.9 |
| 20260905033703 | 56 | 207 | 3.0 | 9.0 | 0.00 | 0.00 | 0.00 | 48 | 1020.6 |
| 20260905033603 | 56 | 196 | 4.0 | 9.0 | 0.00 | 0.00 | 0.00 | 47 | 1021.0 |
| 20260905033503 | 56 | 181 | 4.0 | 9.0 | 0.00 | 0.00 | 0.00 | 48 | 1020.8 |
| 20260905033403 | 56 | 166 | 5.0 | 9.0 | 0.00 | 0.00 | 0.00 | 48 | 1021.0 |
| 20260905033303 | 56 | 139 | 2.0 | 8.0 | 0.00 | 0.00 | 0.00 | 49 | 1020.8 |
| 20260905033217 | 56 | 136 | 3.0 | 8.0 | 0.00 | 0.00 | 0.00 | 48 | 1020.9 |
| 20260905033203 | 56 | 134 | 3.0 | 8.0 | 0.00 | 0.00 | 0.00 | 48 | 1020.9 |
| 20260905033103 | 56 | 144 | 2.0 | 8.0 | 0.00 | 0.00 | 0.00 | 48 | 1021.1 |
| 20260905032917 | 56 | 184 | 4.0 | 8.0 | 0.00 | 0.00 | 0.00 | 48 | 1020.9 |
| 20260905032903 | 56 | 191 | 4.0 | 8.0 | 0.00 | 0.00 | 0.00 | 48 | 1020.9 |
| 20260905032803 | 56 | 201 | 2.0 | 11.0 | 0.00 | 0.00 | 0.00 | 48 | 1020.8 |
| 20260905032603 | 56 | 201 | 3.0 | 11.0 | 0.00 | 0.00 | 0.00 | 48 | 1020.9 |
| 20260905032503 | 56 | 210 | 3.0 | 11.0 | 0.00 | 0.00 | 0.00 | 48 | 1020.9 |
| 20260905032403 | 56 | 201 | 3.0 | 11.0 | 0.00 | 0.00 | 0.00 | 48 | 1021.0 |
| 20260905032306 | 56 | 214 | 4.0 | 11.0 | 0.00 | 0.00 | 0.00 | 48 | 1021.0 |
| 20260905032203 | 56 | 234 | 5.0 | 11.0 | 0.00 | 0.00 | 0.00 | 48 | 1021.0 |
| 20260905032103 | 56 | 243 | 3.0 | 11.0 | 0.00 | 0.00 | 0.00 | 48 | 1020.9 |
| 20260905032003 | 56 | 228 | 3.0 | 11.0 | 0.00 | 0.00 | 0.00 | 48 | 1021.0 |
| 20260905031917 | 56 | 237 | 3.0 | 11.0 | 0.00 | 0.00 | 0.00 | 48 | 1020.6 |
| 20260905031903 | 56 | 234 | 4.0 | 11.0 | 0.00 | 0.00 | 0.00 | 48 | 1020.7 |
| 20260905031803 | 56 | 209 | 3.0 | 11.0 | 0.00 | 0.00 | 0.00 | 48 | 1020.9 |
| 20260905031718 | 56 | 206 | 6.0 | 11.0 | 0.00 | 0.00 | 0.00 | 48 | 1020.7 |
| 20260905031603 | 56 | 185 | 4.0 | 11.0 | 0.00 | 0.00 | 0.00 | 48 | 1021.0 |
| 20260905031517 | 56 | 198 | 4.0 | 11.0 | 0.00 | 0.00 | 0.00 | 48 | 1020.7 |
| 20260905031403 | 56 | 204 | 4.0 | 11.0 | 0.00 | 0.00 | 0.00 | 48 | 1020.9 |
| 20260905031217 | 56 | 208 | 3.0 | 8.0 | 0.00 | 0.00 | 0.00 | 48 | 1020.9 |
| 20260905031203 | 56 | 207 | 3.0 | 8.0 | 0.00 | 0.00 | 0.00 | 48 | 1020.9 |
| 20260905031103 | 56 | 227 | 4.0 | 8.0 | 0.00 | 0.00 | 0.00 | 48 | 1021.0 |
| 20260905030903 | 56 | 233 | 3.0 | 7.0 | 0.00 | 0.00 | 0.00 | 48 | 1020.9 |
| 20260905030803 | 56 | 236 | 3.0 | 7.0 | 0.00 | 0.00 | 0.00 | 48 | 1020.8 |
| 20260905030703 | 57 | 235 | 3.0 | 7.0 | 0.00 | 0.00 | 0.00 | 47 | 1021.1 |
| 20260905030603 | 57 | 223 | 3.0 | 7.0 | 0.00 | 0.00 | 0.00 | 47 | 1020.9 |
| 20260905030503 | 57 | 226 | 4.0 | 7.0 | 0.00 | 0.00 | 0.00 | 47 | 1020.9 |
| 20260905030403 | 57 | 225 | 3.0 | 7.0 | 0.00 | 0.00 | 0.00 | 47 | 1020.8 |
| 20260905030303 | 57 | 223 | 2.0 | 7.0 | 0.00 | 0.00 | 0.00 | 47 | 1020.8 |
| 20260905030203 | 57 | 235 | 2.0 | 7.0 | 0.00 | 0.00 | 0.00 | 47 | 1020.7 |
| 20260905030117 | 57 | 236 | 2.0 | 7.0 | 0.00 | 0.00 | 0.00 | 47 | 1020.9 |
| 20260905030005 | 57 | 229 | 3.0 | 7.0 | 0.00 | 0.00 | 0.00 | 47 | 1020.9 |
| 20260905025803 | 57 | 231 | 2.0 | 4.0 | 0.00 | 0.00 | 0.00 | 47 | 1020.8 |
| 20260905025703 | 57 | 231 | 2.0 | 4.0 | 0.00 | 0.00 | 0.00 | 47 | 1020.8 |
| 20260905025616 | 57 | 225 | 2.0 | 4.0 | 0.00 | 0.00 | 0.00 | 47 | 1020.7 |
| 20260905025604 | 57 | 224 | 2.0 | 4.0 | 0.00 | 0.00 | 0.00 | 47 | 1020.7 |
| 20260905025517 | 57 | 225 | 2.0 | 4.0 | 0.00 | 0.00 | 0.00 | 47 | 1020.7 |
| 20260905025503 | 57 | 225 | 3.0 | 4.0 | 0.00 | 0.00 | 0.00 | 47 | 1020.8 |
| 20260905025203 | 56 | 220 | 2.0 | 4.0 | 0.00 | 0.00 | 0.00 | 48 | 1020.7 |
| 20260905025103 | 56 | 229 | 2.0 | 4.0 | 0.00 | 0.00 | 0.00 | 49 | 1020.6 |
| 20260905025003 | 56 | 228 | 2.0 | 4.0 | 0.00 | 0.00 | 0.00 | 49 | 1020.9 |
| 20260905024916 | 56 | 227 | 2.0 | 4.0 | 0.00 | 0.00 | 0.00 | 50 | 1020.7 |
| 20260905024903 | 56 | 226 | 2.0 | 4.0 | 0.00 | 0.00 | 0.00 | 50 | 1020.7 |
| 20260905024803 | 56 | 223 | 2.0 | 4.0 | 0.00 | 0.00 | 0.00 | 50 | 1020.7 |
| 20260905024603 | 56 | 235 | 2.0 | 4.0 | 0.00 | 0.00 | 0.00 | 50 | 1020.7 |
| 20260905024517 | 56 | 236 | 2.0 | 4.0 | 0.00 | 0.00 | 0.00 | 50 | 1020.6 |
| 20260905024403 | 55 | 231 | 2.0 | 2.0 | 0.00 | 0.00 | 0.00 | 52 | 1020.7 |
| 20260905024203 | 55 | 232 | 1.0 | 2.0 | 0.00 | 0.00 | 0.00 | 52 | 1020.5 |
| 20260905024103 | 55 | 225 | 1.0 | 2.0 | 0.00 | 0.00 | 0.00 | 52 | 1020.8 |
| 20260905024003 | 55 | 0 | 0.0 | 0.0 | 0.00 | 0.00 | 0.00 | 52 | 1020.6 |
| 20260905023903 | 55 | 0 | 0.0 | 0.0 | 0.00 | 0.00 | 0.00 | 53 | 1020.7 |
| 20260905023803 | 55 | 0 | 0.0 | 0.0 | 0.00 | 0.00 | 0.00 | 53 | 1020.4 |
| 20260905023704 | 55 | 0 | 0.0 | 0.0 | 0.00 | 0.00 | 0.00 | 54 | 1020.3 |
| 20260905023503 | 55 | 0 | 0.0 | 0.0 | 0.00 | 0.00 | 0.00 | 54 | 1020.2 |
| 20260905023403 | 55 | 0 | 0.0 | 0.0 | 0.00 | 0.00 | 0.00 | 54 | 1020.5 |
| 20260905023303 | 55 | 0 | 0.0 | 0.0 | 0.00 | 0.00 | 0.00 | 54 | 1020.4 |
| 20260905023203 | 55 | 0 | 0.0 | 0.0 | 0.00 | 0.00 | 0.00 | 54 | 1020.4 |
| 20260905023103 | 55 | 0 | 0.0 | 0.0 | 0.00 | 0.00 | 0.00 | 54 | 1020.5 |
| 20260905023003 | 55 | 0 | 0.0 | 0.0 | 0.00 | 0.00 | 0.00 | 54 | 1020.8 |
| 20260905022904 | 55 | 0 | 0.0 | 0.0 | 0.00 | 0.00 | 0.00 | 54 | 1020.3 |
| 20260905022803 | 55 | 0 | 0.0 | 0.0 | 0.00 | 0.00 | 0.00 | 54 | 1020.5 |
| 20260905022703 | 55 | 0 | 0.0 | 0.0 | 0.00 | 0.00 | 0.00 | 54 | 1020.4 |
| 20260905022603 | 55 | 0 | 0.0 | 0.0 | 0.00 | 0.00 | 0.00 | 54 | 1020.5 |
| 20260905022403 | 55 | 0 | 0.0 | 0.0 | 0.00 | 0.00 | 0.00 | 54 | 1020.3 |
| 20260905022306 | 55 | 0 | 0.0 | 0.0 | 0.00 | 0.00 | 0.00 | 54 | 1020.3 |
| 20260905022203 | 55 | 0 | 0.0 | 0.0 | 0.00 | 0.00 | 0.00 | 54 | 1020.0 |
| 20260905022103 | 55 | 0 | 0.0 | 0.0 | 0.00 | 0.00 | 0.00 | 54 | 1020.3 |
| 20260905022003 | 55 | 0 | 0.0 | 0.0 | 0.00 | 0.00 | 0.00 | 54 | 1020.4 |
| 20260905021903 | 55 | 0 | 0.0 | 0.0 | 0.00 | 0.00 | 0.00 | 54 | 1020.3 |
| 20260905021803 | 55 | 0 | 0.0 | 0.0 | 0.00 | 0.00 | 0.00 | 54 | 1020.4 |
| 20260905021703 | 55 | 0 | 0.0 | 0.0 | 0.00 | 0.00 | 0.00 | 54 | 1020.4 |
| 20260905021603 | 55 | 0 | 0.0 | 0.0 | 0.00 | 0.00 | 0.00 | 55 | 1020.4 |
| 20260905021504 | 55 | 0 | 0.0 | 0.0 | 0.00 | 0.00 | 0.00 | 55 | 1020.2 |
| 20260905021403 | 55 | 0 | 0.0 | 0.0 | 0.00 | 0.00 | 0.00 | 55 | 1020.3 |
| 20260905021303 | 55 | 0 | 0.0 | 0.0 | 0.00 | 0.00 | 0.00 | 55 | 1020.4 |
| 20260905021203 | 55 | 0 | 0.0 | 0.0 | 0.00 | 0.00 | 0.00 | 55 | 1020.4 |
| 20260905021117 | 55 | 0 | 0.0 | 0.0 | 0.00 | 0.00 | 0.00 | 55 | 1020.1 |
| 20260905021103 | 55 | 0 | 0.0 | 0.0 | 0.00 | 0.00 | 0.00 | 55 | 1020.2 |
| 20260905021003 | 55 | 0 | 0.0 | 0.0 | 0.00 | 0.00 | 0.00 | 54 | 1020.2 |
| 20260905020803 | 55 | 0 | 0.0 | 0.0 | 0.00 | 0.00 | 0.00 | 55 | 1020.4 |
| 20260905020717 | 55 | 0 | 0.0 | 0.0 | 0.00 | 0.00 | 0.00 | 55 | 1020.3 |
| 20260905020703 | 55 | 0 | 0.0 | 0.0 | 0.00 | 0.00 | 0.00 | 54 | 1020.0 |
| 20260905020603 | 55 | 0 | 0.0 | 0.0 | 0.00 | 0.00 | 0.00 | 55 | 1020.3 |
| 20260905020403 | 55 | 0 | 0.0 | 0.0 | 0.00 | 0.00 | 0.00 | 55 | 1020.3 |
| 20260905020303 | 55 | 0 | 0.0 | 0.0 | 0.00 | 0.00 | 0.00 | 55 | 1020.2 |
| 20260905020103 | 55 | 0 | 0.0 | 0.0 | 0.00 | 0.00 | 0.00 | 54 | 1020.3 |
| 20260905020004 | 55 | 0 | 0.0 | 0.0 | 0.00 | 0.00 | 0.00 | 55 | 1020.4 |
| 20260905015803 | 55 | 0 | 0.0 | 0.0 | 0.00 | 0.00 | 0.00 | 54 | 1020.3 |
| 20260905015703 | 56 | 0 | 0.0 | 0.0 | 0.00 | 0.00 | 0.00 | 54 | 1020.2 |
| 20260905015603 | 56 | 0 | 0.0 | 0.0 | 0.00 | 0.00 | 0.00 | 54 | 1020.4 |
| 20260905015503 | 56 | 0 | 0.0 | 0.0 | 0.00 | 0.00 | 0.00 | 54 | 1020.2 |
| 20260905015403 | 56 | 0 | 0.0 | 0.0 | 0.00 | 0.00 | 0.00 | 54 | 1020.3 |
| 20260905015306 | 56 | 0 | 0.0 | 0.0 | 0.00 | 0.00 | 0.00 | 54 | 1020.2 |
| 20260905015203 | 56 | 0 | 0.0 | 0.0 | 0.00 | 0.00 | 0.00 | 54 | 1020.3 |
| 20260905015103 | 56 | 0 | 0.0 | 0.0 | 0.00 | 0.00 | 0.00 | 54 | 1020.4 |
| 20260905015003 | 56 | 0 | 0.0 | 0.0 | 0.00 | 0.00 | 0.00 | 54 | 1020.2 |
| 20260905014903 | 56 | 0 | 0.0 | 0.0 | 0.00 | 0.00 | 0.00 | 54 | 1020.4 |
| 20260905014803 | 56 | 0 | 0.0 | 0.0 | 0.00 | 0.00 | 0.00 | 53 | 1020.0 |
| 20260905014703 | 56 | 0 | 0.0 | 0.0 | 0.00 | 0.00 | 0.00 | 53 | 1020.3 |
| 20260905014603 | 56 | 0 | 0.0 | 0.0 | 0.00 | 0.00 | 0.00 | 53 | 1020.1 |
| 20260905014503 | 56 | 0 | 0.0 | 0.0 | 0.00 | 0.00 | 0.00 | 53 | 1020.2 |
| 20260905014403 | 56 | 0 | 0.0 | 0.0 | 0.00 | 0.00 | 0.00 | 53 | 1020.1 |
| 20260905014304 | 56 | 0 | 0.0 | 0.0 | 0.00 | 0.00 | 0.00 | 52 | 1020.0 |
| 20260905014203 | 56 | 0 | 0.0 | 0.0 | 0.00 | 0.00 | 0.00 | 52 | 1020.0 |
| 20260905014103 | 56 | 0 | 0.0 | 0.0 | 0.00 | 0.00 | 0.00 | 52 | 1020.0 |
| 20260905014003 | 56 | 0 | 0.0 | 0.0 | 0.00 | 0.00 | 0.00 | 52 | 1020.3 |
| 20260905013903 | 56 | 0 | 0.0 | 0.0 | 0.00 | 0.00 | 0.00 | 51 | 1020.1 |
| 20260905013803 | 56 | 0 | 0.0 | 0.0 | 0.00 | 0.00 | 0.00 | 51 | 1020.0 |
| 20260905013703 | 56 | 0 | 0.0 | 0.0 | 0.00 | 0.00 | 0.00 | 51 | 1020.0 |
| 20260905013603 | 56 | 0 | 0.0 | 0.0 | 0.00 | 0.00 | 0.00 | 51 | 1019.9 |
| 20260905013503 | 56 | 0 | 0.0 | 0.0 | 0.00 | 0.00 | 0.00 | 51 | 1019.9 |
| 20260905013303 | 56 | 0 | 0.0 | 0.0 | 0.00 | 0.00 | 0.00 | 51 | 1019.8 |
| 20260905013203 | 56 | 0 | 0.0 | 0.0 | 0.00 | 0.00 | 0.00 | 50 | 1020.1 |
| 20260905013103 | 56 | 0 | 0.0 | 0.0 | 0.00 | 0.00 | 0.00 | 50 | 1020.1 |
| 20260905013003 | 56 | 0 | 0.0 | 0.0 | 0.00 | 0.00 | 0.00 | 50 | 1019.9 |
| 20260905012903 | 56 | 0 | 0.0 | 0.0 | 0.00 | 0.00 | 0.00 | 50 | 1019.8 |
| 20260905012803 | 57 | 0 | 0.0 | 0.0 | 0.00 | 0.00 | 0.00 | 51 | 1019.9 |
| 20260905012703 | 57 | 0 | 0.0 | 0.0 | 0.00 | 0.00 | 0.00 | 51 | 1019.9 |
| 20260905012604 | 57 | 0 | 0.0 | 0.0 | 0.00 | 0.00 | 0.00 | 51 | 1020.0 |
| 20260905012503 | 57 | 0 | 0.0 | 0.0 | 0.00 | 0.00 | 0.00 | 51 | 1019.9 |
| 20260905012306 | 57 | 0 | 0.0 | 0.0 | 0.00 | 0.00 | 0.00 | 50 | 1019.7 |
| 20260905012203 | 57 | 0 | 0.0 | 0.0 | 0.00 | 0.00 | 0.00 | 50 | 1019.9 |
| 20260905012103 | 57 | 0 | 0.0 | 0.0 | 0.00 | 0.00 | 0.00 | 50 | 1019.8 |
| 20260905012003 | 57 | 0 | 0.0 | 0.0 | 0.00 | 0.00 | 0.00 | 50 | 1019.5 |
| 20260905011803 | 57 | 0 | 0.0 | 0.0 | 0.00 | 0.00 | 0.00 | 50 | 1019.8 |
| 20260905011703 | 57 | 0 | 0.0 | 0.0 | 0.00 | 0.00 | 0.00 | 50 | 1019.9 |
| 20260905011603 | 57 | 0 | 0.0 | 0.0 | 0.00 | 0.00 | 0.00 | 50 | 1019.6 |
| 20260905011403 | 57 | 0 | 0.0 | 0.0 | 0.00 | 0.00 | 0.00 | 51 | 1019.4 |
| 20260905011303 | 58 | 0 | 0.0 | 0.0 | 0.00 | 0.00 | 0.00 | 50 | 1019.7 |
| 20260905011203 | 58 | 0 | 0.0 | 0.0 | 0.00 | 0.00 | 0.00 | 51 | 1019.6 |
| 20260905011103 | 58 | 0 | 0.0 | 0.0 | 0.00 | 0.00 | 0.00 | 51 | 1019.6 |
| 20260905011003 | 58 | 0 | 0.0 | 0.0 | 0.00 | 0.00 | 0.00 | 51 | 1019.6 |
| 20260905010903 | 58 | 0 | 0.0 | 0.0 | 0.00 | 0.00 | 0.00 | 51 | 1019.6 |
| 20260905010817 | 58 | 0 | 0.0 | 0.0 | 0.00 | 0.00 | 0.00 | 51 | 1019.6 |
| 20260905010703 | 58 | 0 | 0.0 | 0.0 | 0.00 | 0.00 | 0.00 | 51 | 1019.6 |
| 20260905010403 | 58 | 0 | 0.0 | 0.0 | 0.00 | 0.00 | 0.00 | 51 | 1019.5 |
| 20260905010303 | 58 | 0 | 0.0 | 0.0 | 0.00 | 0.00 | 0.00 | 51 | 1019.5 |
| 20260905010103 | 58 | 0 | 0.0 | 0.0 | 0.00 | 0.00 | 0.00 | 52 | 1019.4 |
| 20260905010005 | 58 | 0 | 0.0 | 0.0 | 0.00 | 0.00 | 0.00 | 51 | 1019.5 |
| 20260905005903 | 58 | 0 | 0.0 | 0.0 | 0.00 | 0.00 | 0.00 | 51 | 1019.3 |
| 20260905005803 | 58 | 0 | 0.0 | 0.0 | 0.00 | 0.00 | 0.00 | 51 | 1019.3 |
| 20260905005703 | 58 | 0 | 0.0 | 0.0 | 0.00 | 0.00 | 0.00 | 50 | 1019.4 |
| 20260905005603 | 58 | 0 | 0.0 | 0.0 | 0.00 | 0.00 | 0.00 | 50 | 1019.5 |
| 20260905005503 | 59 | 0 | 0.0 | 0.0 | 0.00 | 0.00 | 0.00 | 51 | 1019.0 |
| 20260905005403 | 59 | 0 | 0.0 | 0.0 | 0.00 | 0.00 | 0.00 | 51 | 1019.4 |
| 20260905005306 | 59 | 0 | 0.0 | 0.0 | 0.00 | 0.00 | 0.00 | 51 | 1019.1 |
| 20260905005203 | 59 | 0 | 0.0 | 0.0 | 0.00 | 0.00 | 0.00 | 50 | 1019.3 |
| 20260905005104 | 59 | 0 | 0.0 | 0.0 | 0.00 | 0.00 | 0.00 | 50 | 1019.3 |
| 20260905005003 | 59 | 0 | 0.0 | 0.0 | 0.00 | 0.00 | 0.00 | 51 | 1019.1 |
| 20260905004903 | 59 | 0 | 0.0 | 0.0 | 0.00 | 0.00 | 0.00 | 51 | 1019.3 |
| 20260905004803 | 59 | 0 | 0.0 | 0.0 | 0.00 | 0.00 | 0.00 | 51 | 1019.3 |
| 20260905004703 | 59 | 0 | 0.0 | 0.0 | 0.00 | 0.00 | 0.00 | 51 | 1019.5 |
| 20260905004603 | 59 | 0 | 0.0 | 0.0 | 0.00 | 0.00 | 0.00 | 53 | 1019.2 |
| 20260905004503 | 59 | 0 | 0.0 | 0.0 | 0.00 | 0.00 | 0.00 | 51 | 1019.4 |
| 20260905004403 | 59 | 0 | 0.0 | 0.0 | 0.00 | 0.00 | 0.00 | 51 | 1019.3 |
| 20260905004305 | 59 | 0 | 0.0 | 0.0 | 0.00 | 0.00 | 0.00 | 51 | 1019.2 |
| 20260905004203 | 59 | 0 | 0.0 | 0.0 | 0.00 | 0.00 | 0.00 | 51 | 1019.2 |
| 20260905004103 | 59 | 0 | 0.0 | 0.0 | 0.00 | 0.00 | 0.00 | 50 | 1019.0 |
| 20260905003903 | 59 | 0 | 0.0 | 0.0 | 0.00 | 0.00 | 0.00 | 51 | 1019.2 |
| 20260905003803 | 59 | 0 | 0.0 | 0.0 | 0.00 | 0.00 | 0.00 | 51 | 1019.2 |
| 20260905003703 | 59 | 0 | 0.0 | 0.0 | 0.00 | 0.00 | 0.00 | 50 | 1019.1 |
| 20260905003606 | 59 | 0 | 0.0 | 0.0 | 0.00 | 0.00 | 0.00 | 50 | 1019.2 |
| 20260905003503 | 59 | 0 | 0.0 | 0.0 | 0.00 | 0.00 | 0.00 | 50 | 1018.9 |
| 20260905003403 | 59 | 0 | 0.0 | 0.0 | 0.00 | 0.00 | 0.00 | 50 | 1019.1 |
| 20260905003303 | 59 | 0 | 0.0 | 0.0 | 0.00 | 0.00 | 0.00 | 50 | 1019.1 |
| 20260905003203 | 59 | 0 | 0.0 | 0.0 | 0.00 | 0.00 | 0.00 | 49 | 1018.8 |
| 20260905003103 | 60 | 0 | 0.0 | 0.0 | 0.00 | 0.00 | 0.00 | 49 | 1019.3 |
| 20260905002903 | 60 | 0 | 0.0 | 0.0 | 0.00 | 0.00 | 0.00 | 48 | 1019.1 |
| 20260905002803 | 60 | 0 | 0.0 | 0.0 | 0.00 | 0.00 | 0.00 | 48 | 1018.9 |
| 20260905002604 | 60 | 0 | 0.0 | 0.0 | 0.00 | 0.00 | 0.00 | 48 | 1018.8 |
| 20260905002503 | 60 | 0 | 0.0 | 0.0 | 0.00 | 0.00 | 0.00 | 48 | 1018.9 |
| 20260905002403 | 60 | 0 | 0.0 | 0.0 | 0.00 | 0.00 | 0.00 | 48 | 1018.8 |
| 20260905002306 | 60 | 0 | 0.0 | 0.0 | 0.00 | 0.00 | 0.00 | 47 | 1018.7 |
| 20260905002203 | 60 | 0 | 0.0 | 0.0 | 0.00 | 0.00 | 0.00 | 49 | 1018.8 |
| 20260905002103 | 60 | 0 | 0.0 | 0.0 | 0.00 | 0.00 | 0.00 | 49 | 1018.7 |
| 20260905002003 | 60 | 0 | 0.0 | 0.0 | 0.00 | 0.00 | 0.00 | 49 | 1018.6 |
| 20260905001903 | 60 | 0 | 0.0 | 0.0 | 0.00 | 0.00 | 0.00 | 48 | 1018.6 |
| 20260905001705 | 60 | 0 | 0.0 | 0.0 | 0.00 | 0.00 | 0.00 | 48 | 1018.6 |
| 20260905001605 | 60 | 0 | 0.0 | 0.0 | 0.00 | 0.00 | 0.00 | 48 | 1018.6 |
| 20260905001503 | 60 | 0 | 0.0 | 0.0 | 0.00 | 0.00 | 0.00 | 49 | 1018.5 |
| 20260905001406 | 60 | 0 | 0.0 | 0.0 | 0.00 | 0.00 | 0.00 | 48 | 1018.6 |
| 20260905001303 | 60 | 0 | 0.0 | 0.0 | 0.00 | 0.00 | 0.00 | 48 | 1018.9 |
| 20260905001203 | 60 | 0 | 0.0 | 0.0 | 0.00 | 0.00 | 0.00 | 48 | 1018.7 |
| 20260905001103 | 60 | 0 | 0.0 | 0.0 | 0.00 | 0.00 | 0.00 | 48 | 1018.7 |
| 20260905001003 | 60 | 0 | 0.0 | 0.0 | 0.00 | 0.00 | 0.00 | 47 | 1018.5 |
| 20260905000903 | 60 | 0 | 0.0 | 0.0 | 0.00 | 0.00 | 0.00 | 48 | 1018.7 |
| 20260905000803 | 60 | 0 | 0.0 | 0.0 | 0.00 | 0.00 | 0.00 | 48 | 1018.6 |
| 20260905000717 | 61 | 0 | 0.0 | 0.0 | 0.00 | 0.00 | 0.00 | 49 | 1018.6 |
| 20260905000603 | 61 | 0 | 0.0 | 0.0 | 0.00 | 0.00 | 0.00 | 47 | 1018.8 |
| 20260905000403 | 61 | 0 | 0.0 | 0.0 | 0.00 | 0.00 | 0.00 | 45 | 1018.5 |
| 20260905000318 | 61 | 0 | 0.0 | 0.0 | 0.00 | 0.00 | 0.00 | 46 | 1018.7 |
| 20260905000303 | 61 | 0 | 0.0 | 0.0 | 0.00 | 0.00 | 0.00 | 46 | 1018.4 |
| 20260905000204 | 61 | 0 | 0.0 | 0.0 | 0.00 | 0.00 | 0.00 | 46 | 1018.3 |
| 20260905000003 | 61 | 0 | 0.0 | 0.0 | 0.00 | 0.00 | 0.00 | 46 | 1018.6 |
| 20260904235903 | 61 | 0 | 0.0 | 0.0 | 0.00 | 0.00 | 0.00 | 45 | 1018.4 |
| 20260904235803 | 61 | 0 | 0.0 | 0.0 | 0.00 | 0.00 | 0.00 | 45 | 1018.5 |
| 20260904235703 | 61 | 0 | 0.0 | 0.0 | 0.00 | 0.00 | 0.00 | 45 | 1018.5 |
| 20260904235603 | 61 | 0 | 0.0 | 0.0 | 0.00 | 0.00 | 0.00 | 46 | 1018.3 |
| 20260904235503 | 61 | 0 | 0.0 | 0.0 | 0.00 | 0.00 | 0.00 | 45 | 1018.3 |
| 20260904235403 | 61 | 0 | 0.0 | 0.0 | 0.00 | 0.00 | 0.00 | 45 | 1018.4 |
| 20260904235306 | 61 | 0 | 0.0 | 0.0 | 0.00 | 0.00 | 0.00 | 45 | 1018.5 |
| 20260904235203 | 61 | 0 | 0.0 | 0.0 | 0.00 | 0.00 | 0.00 | 45 | 1018.3 |
| 20260904235103 | 61 | 0 | 0.0 | 0.0 | 0.00 | 0.00 | 0.00 | 44 | 1018.4 |
| 20260904235003 | 61 | 0 | 0.0 | 0.0 | 0.00 | 0.00 | 0.00 | 44 | 1018.5 |
| 20260904234903 | 61 | 0 | 0.0 | 0.0 | 0.00 | 0.00 | 0.00 | 44 | 1018.6 |
| 20260904234803 | 61 | 0 | 0.0 | 0.0 | 0.00 | 0.00 | 0.00 | 43 | 1018.4 |
| 20260904234603 | 62 | 0 | 0.0 | 0.0 | 0.00 | 0.00 | 0.00 | 44 | 1018.6 |
| 20260904234503 | 62 | 0 | 0.0 | 0.0 | 0.00 | 0.00 | 0.00 | 43 | 1018.3 |
| 20260904234403 | 62 | 0 | 0.0 | 0.0 | 0.00 | 0.00 | 0.00 | 43 | 1018.5 |
| 20260904234103 | 62 | 0 | 0.0 | 0.0 | 0.00 | 0.00 | 0.00 | 44 | 1018.4 |
| 20260904234003 | 62 | 0 | 0.0 | 0.0 | 0.00 | 0.00 | 0.00 | 43 | 1018.6 |
| 20260904233903 | 62 | 0 | 0.0 | 0.0 | 0.00 | 0.00 | 0.00 | 42 | 1018.3 |
| 20260904233703 | 62 | 0 | 0.0 | 0.0 | 0.00 | 0.00 | 0.00 | 43 | 1018.3 |
| 20260904233603 | 62 | 0 | 0.0 | 0.0 | 0.00 | 0.00 | 0.00 | 43 | 1018.1 |
| 20260904233518 | 62 | 0 | 0.0 | 0.0 | 0.00 | 0.00 | 0.00 | 43 | 1018.3 |
| 20260904233503 | 62 | 0 | 0.0 | 0.0 | 0.00 | 0.00 | 0.00 | 42 | 1018.3 |
| 20260904233403 | 62 | 0 | 0.0 | 0.0 | 0.00 | 0.00 | 0.00 | 42 | 1018.2 |
| 20260904233205 | 62 | 0 | 0.0 | 0.0 | 0.00 | 0.00 | 0.00 | 43 | 1018.3 |
| 20260904233118 | 62 | 0 | 0.0 | 0.0 | 0.00 | 0.00 | 0.00 | 42 | 1018.2 |
| 20260904233105 | 62 | 0 | 0.0 | 0.0 | 0.00 | 0.00 | 0.00 | 41 | 1018.1 |
| 20260904233004 | 62 | 0 | 0.0 | 0.0 | 0.00 | 0.00 | 0.00 | 41 | 1018.2 |
| 20260904232917 | 62 | 0 | 0.0 | 0.0 | 0.00 | 0.00 | 0.00 | 41 | 1018.4 |
| 20260904232804 | 62 | 0 | 0.0 | 0.0 | 0.00 | 0.00 | 0.00 | 40 | 1018.1 |
| 20260904232603 | 63 | 0 | 0.0 | 0.0 | 0.00 | 0.00 | 0.00 | 40 | 1018.2 |
| 20260904232503 | 63 | 0 | 0.0 | 0.0 | 0.00 | 0.00 | 0.00 | 39 | 1018.4 |
| 20260904232403 | 63 | 0 | 0.0 | 0.0 | 0.00 | 0.00 | 0.00 | 39 | 1018.0 |
| 20260904232306 | 63 | 0 | 0.0 | 0.0 | 0.00 | 0.00 | 0.00 | 39 | 1018.1 |
| 20260904232203 | 63 | 0 | 0.0 | 0.0 | 0.00 | 0.00 | 0.00 | 39 | 1018.3 |
| 20260904232103 | 63 | 0 | 0.0 | 0.0 | 0.00 | 0.00 | 0.00 | 39 | 1018.1 |
| 20260904232003 | 63 | 0 | 0.0 | 0.0 | 0.00 | 0.00 | 0.00 | 39 | 1018.1 |
| 20260904231903 | 63 | 0 | 0.0 | 0.0 | 0.00 | 0.00 | 0.00 | 39 | 1018.2 |
| 20260904231603 | 63 | 0 | 0.0 | 0.0 | 0.00 | 0.00 | 0.00 | 39 | 1018.3 |
| 20260904231518 | 63 | 0 | 0.0 | 0.0 | 0.00 | 0.00 | 0.00 | 38 | 1018.2 |
| 20260904231503 | 63 | 0 | 0.0 | 0.0 | 0.00 | 0.00 | 0.00 | 39 | 1018.2 |
| 20260904231403 | 63 | 0 | 0.0 | 0.0 | 0.00 | 0.00 | 0.00 | 38 | 1018.1 |
| 20260904231203 | 64 | 0 | 0.0 | 0.0 | 0.00 | 0.00 | 0.00 | 38 | 1018.3 |
| 20260904231103 | 64 | 0 | 0.0 | 0.0 | 0.00 | 0.00 | 0.00 | 38 | 1018.1 |
| 20260904231003 | 64 | 0 | 0.0 | 0.0 | 0.00 | 0.00 | 0.00 | 37 | 1018.2 |
| 20260904230903 | 64 | 0 | 0.0 | 0.0 | 0.00 | 0.00 | 0.00 | 37 | 1017.9 |
| 20260904230804 | 64 | 0 | 0.0 | 0.0 | 0.00 | 0.00 | 0.00 | 37 | 1018.2 |
| 20260904230703 | 64 | 0 | 0.0 | 0.0 | 0.00 | 0.00 | 0.00 | 37 | 1017.9 |
| 20260904230603 | 64 | 0 | 0.0 | 0.0 | 0.00 | 0.00 | 0.00 | 37 | 1017.9 |
| 20260904230503 | 64 | 0 | 0.0 | 0.0 | 0.00 | 0.00 | 0.00 | 37 | 1018.3 |
| 20260904230303 | 64 | 0 | 0.0 | 0.0 | 0.00 | 0.00 | 0.00 | 37 | 1018.0 |
| 20260904230203 | 64 | 0 | 0.0 | 0.0 | 0.00 | 0.00 | 0.00 | 36 | 1017.9 |
| 20260904230016 | 64 | 0 | 0.0 | 0.0 | 0.00 | 0.00 | 0.00 | 36 | 1018.2 |
| 20260904225903 | 64 | 0 | 0.0 | 0.0 | 0.00 | 0.00 | 0.00 | 36 | 1018.0 |
| 20260904225603 | 64 | 0 | 0.0 | 0.0 | 0.00 | 0.00 | 0.00 | 36 | 1017.9 |
| 20260904225503 | 64 | 0 | 0.0 | 0.0 | 0.00 | 0.00 | 0.00 | 36 | 1017.8 |
| 20260904225403 | 64 | 0 | 0.0 | 0.0 | 0.00 | 0.00 | 0.00 | 36 | 1017.8 |
| 20260904225311 | 65 | 270 | 0.0 | 2.0 | 0.00 | 0.00 | 0.00 | 36 | 1017.9 |
| 20260904225203 | 65 | 270 | 0.0 | 2.0 | 0.00 | 0.00 | 0.00 | 36 | 1018.0 |
| 20260904225103 | 65 | 267 | 0.0 | 4.0 | 0.00 | 0.00 | 0.00 | 36 | 1018.0 |
| 20260904225003 | 65 | 262 | 0.0 | 4.0 | 0.00 | 0.00 | 0.00 | 36 | 1017.8 |
| 20260904224903 | 65 | 258 | 0.0 | 4.0 | 0.00 | 0.00 | 0.00 | 36 | 1018.0 |
| 20260904224703 | 65 | 244 | 2.0 | 4.0 | 0.00 | 0.00 | 0.00 | 36 | 1017.9 |
| 20260904224603 | 65 | 236 | 0.0 | 2.0 | 0.00 | 0.00 | 0.00 | 36 | 1017.9 |
| 20260904224503 | 65 | 236 | 0.0 | 2.0 | 0.00 | 0.00 | 0.00 | 36 | 1017.8 |
| 20260904224303 | 65 | 232 | 1.0 | 2.0 | 0.00 | 0.00 | 0.00 | 35 | 1017.6 |
| 20260904224203 | 65 | 231 | 2.0 | 2.0 | 0.00 | 0.00 | 0.00 | 35 | 1017.8 |
| 20260904224118 | 65 | 227 | 1.0 | 2.0 | 0.00 | 0.00 | 0.00 | 36 | 1017.8 |
| 20260904224103 | 65 | 226 | 1.0 | 2.0 | 0.00 | 0.00 | 0.00 | 36 | 1017.8 |
| 20260904224003 | 65 | 225 | 1.0 | 2.0 | 0.00 | 0.00 | 0.00 | 35 | 1017.9 |
| 20260904223805 | 65 | 221 | 1.0 | 2.0 | 0.00 | 0.00 | 0.00 | 35 | 1017.8 |
| 20260904223703 | 65 | 222 | 1.0 | 2.0 | 0.00 | 0.00 | 0.00 | 35 | 1017.7 |
| 20260904223603 | 65 | 222 | 1.0 | 2.0 | 0.00 | 0.00 | 0.00 | 35 | 1017.7 |
| 20260904223503 | 65 | 222 | 0.0 | 2.0 | 0.00 | 0.00 | 0.00 | 35 | 1017.6 |
| 20260904223403 | 65 | 225 | 0.0 | 2.0 | 0.00 | 0.00 | 0.00 | 35 | 1017.6 |
| 20260904223303 | 65 | 223 | 1.0 | 2.0 | 0.00 | 0.00 | 0.00 | 34 | 1017.8 |
| 20260904223203 | 65 | 222 | 2.0 | 2.0 | 0.00 | 0.00 | 0.00 | 34 | 1017.8 |
| 20260904223103 | 65 | 221 | 2.0 | 2.0 | 0.00 | 0.00 | 0.00 | 34 | 1017.8 |
| 20260904223004 | 65 | 220 | 0.0 | 2.0 | 0.00 | 0.00 | 0.00 | 35 | 1018.0 |
| 20260904222903 | 65 | 220 | 1.0 | 2.0 | 0.00 | 0.00 | 0.00 | 35 | 1017.7 |
| 20260904222803 | 65 | 224 | 1.0 | 2.0 | 0.00 | 0.00 | 0.00 | 35 | 1017.9 |
| 20260904222703 | 65 | 229 | 0.0 | 2.0 | 0.00 | 0.00 | 0.00 | 35 | 1017.6 |
| 20260904222603 | 65 | 223 | 0.0 | 2.0 | 0.00 | 0.00 | 0.00 | 35 | 1017.7 |
| 20260904222503 | 65 | 222 | 0.0 | 2.0 | 0.00 | 0.00 | 0.00 | 35 | 1017.7 |
| 20260904222403 | 66 | 222 | 2.0 | 2.0 | 0.00 | 0.00 | 0.00 | 34 | 1017.6 |
| 20260904222306 | 66 | 222 | 1.0 | 2.0 | 0.00 | 0.00 | 0.00 | 35 | 1017.8 |
| 20260904222203 | 66 | 217 | 0.0 | 2.0 | 0.00 | 0.00 | 0.00 | 35 | 1017.7 |
| 20260904222103 | 66 | 218 | 1.0 | 2.0 | 0.00 | 0.00 | 0.00 | 35 | 1017.8 |
| 20260904222016 | 66 | 221 | 2.0 | 2.0 | 0.00 | 0.00 | 0.00 | 34 | 1017.8 |
| 20260904221917 | 66 | 222 | 1.0 | 2.0 | 0.00 | 0.00 | 0.00 | 35 | 1017.9 |
| 20260904221903 | 66 | 223 | 1.0 | 2.0 | 0.00 | 0.00 | 0.00 | 34 | 1017.9 |
| 20260904221603 | 66 | 241 | 1.0 | 2.0 | 0.00 | 0.00 | 0.00 | 34 | 1017.7 |
| 20260904221503 | 66 | 243 | 2.0 | 2.0 | 0.00 | 0.00 | 0.00 | 34 | 1017.9 |
| 20260904221403 | 66 | 247 | 1.0 | 2.0 | 0.00 | 0.00 | 0.00 | 34 | 1017.8 |
| 20260904221303 | 66 | 247 | 1.0 | 2.0 | 0.00 | 0.00 | 0.00 | 34 | 1017.6 |
| 20260904221203 | 66 | 244 | 1.0 | 2.0 | 0.00 | 0.00 | 0.00 | 34 | 1017.6 |
| 20260904221103 | 66 | 239 | 1.0 | 2.0 | 0.00 | 0.00 | 0.00 | 34 | 1017.5 |
| 20260904221018 | 66 | 236 | 2.0 | 2.0 | 0.00 | 0.00 | 0.00 | 33 | 1017.8 |
| 20260904221003 | 66 | 234 | 2.0 | 2.0 | 0.00 | 0.00 | 0.00 | 33 | 1017.8 |
| 20260904220917 | 66 | 230 | 1.0 | 2.0 | 0.00 | 0.00 | 0.00 | 33 | 1017.9 |
| 20260904220903 | 66 | 229 | 1.0 | 2.0 | 0.00 | 0.00 | 0.00 | 33 | 1017.9 |
| 20260904220603 | 66 | 225 | 1.0 | 2.0 | 0.00 | 0.00 | 0.00 | 33 | 1017.8 |
| 20260904220503 | 67 | 225 | 1.0 | 2.0 | 0.00 | 0.00 | 0.00 | 33 | 1017.4 |
| 20260904220403 | 67 | 225 | 0.0 | 2.0 | 0.00 | 0.00 | 0.00 | 34 | 1017.7 |
| 20260904220303 | 66 | 227 | 0.0 | 2.0 | 0.00 | 0.00 | 0.00 | 34 | 1017.6 |
| 20260904220003 | 67 | 225 | 0.0 | 2.0 | 0.00 | 0.00 | 0.00 | 33 | 1017.7 |
| 20260904215903 | 67 | 212 | 0.0 | 2.0 | 0.00 | 0.00 | 0.00 | 33 | 1017.5 |
| 20260904215703 | 67 | 214 | 0.0 | 2.0 | 0.00 | 0.00 | 0.00 | 33 | 1017.6 |
| 20260904215603 | 67 | 228 | 0.0 | 2.0 | 0.00 | 0.00 | 0.00 | 32 | 1017.5 |
| 20260904215517 | 67 | 229 | 0.0 | 2.0 | 0.00 | 0.00 | 0.00 | 32 | 1017.6 |
| 20260904215403 | 67 | 243 | 1.0 | 4.0 | 0.00 | 0.00 | 0.00 | 32 | 1017.6 |
| 20260904215316 | 67 | 242 | 0.0 | 4.0 | 0.00 | 0.00 | 0.00 | 32 | 1017.7 |
| 20260904215203 | 67 | 241 | 0.0 | 4.0 | 0.00 | 0.00 | 0.00 | 32 | 1017.7 |
| 20260904215118 | 67 | 237 | 1.0 | 4.0 | 0.00 | 0.00 | 0.00 | 32 | 1017.6 |
| 20260904215003 | 67 | 236 | 2.0 | 4.0 | 0.00 | 0.00 | 0.00 | 32 | 1017.6 |
| 20260904214803 | 67 | 213 | 0.0 | 2.0 | 0.00 | 0.00 | 0.00 | 32 | 1017.8 |
| 20260904214718 | 67 | 210 | 0.0 | 2.0 | 0.00 | 0.00 | 0.00 | 32 | 1018.1 |
| 20260904214703 | 67 | 209 | 0.0 | 2.0 | 0.00 | 0.00 | 0.00 | 32 | 1017.7 |
| 20260904214603 | 67 | 207 | 0.0 | 4.0 | 0.00 | 0.00 | 0.00 | 31 | 1017.7 |
| 20260904214404 | 68 | 193 | 2.0 | 4.0 | 0.00 | 0.00 | 0.00 | 31 | 1017.7 |
| 20260904214303 | 68 | 200 | 2.0 | 4.0 | 0.00 | 0.00 | 0.00 | 31 | 1017.8 |
| 20260904214203 | 68 | 207 | 2.0 | 4.0 | 0.00 | 0.00 | 0.00 | 31 | 1017.7 |
| 20260904214106 | 68 | 207 | 2.0 | 4.0 | 0.00 | 0.00 | 0.00 | 31 | 1017.4 |
| 20260904214003 | 68 | 219 | 2.0 | 4.0 | 0.00 | 0.00 | 0.00 | 31 | 1017.7 |
| 20260904213718 | 68 | 231 | 1.0 | 4.0 | 0.00 | 0.00 | 0.00 | 31 | 1017.6 |
| 20260904213703 | 68 | 230 | 1.0 | 4.0 | 0.00 | 0.00 | 0.00 | 31 | 1017.6 |
| 20260904213603 | 68 | 232 | 2.0 | 4.0 | 0.00 | 0.00 | 0.00 | 31 | 1017.6 |
| 20260904213403 | 68 | 226 | 1.0 | 4.0 | 0.00 | 0.00 | 0.00 | 30 | 1017.7 |
| 20260904213305 | 68 | 224 | 1.0 | 4.0 | 0.00 | 0.00 | 0.00 | 31 | 1017.5 |
| 20260904213203 | 68 | 229 | 2.0 | 4.0 | 0.00 | 0.00 | 0.00 | 31 | 1017.6 |
| 20260904213117 | 68 | 240 | 2.0 | 4.0 | 0.00 | 0.00 | 0.00 | 30 | 1017.5 |
| 20260904213103 | 68 | 241 | 0.0 | 2.0 | 0.00 | 0.00 | 0.00 | 31 | 1017.5 |
| 20260904213003 | 68 | 239 | 0.0 | 2.0 | 0.00 | 0.00 | 0.00 | 30 | 1017.4 |
| 20260904212803 | 68 | 235 | 1.0 | 4.0 | 0.00 | 0.00 | 0.00 | 30 | 1017.7 |
| 20260904212703 | 68 | 230 | 2.0 | 4.0 | 0.00 | 0.00 | 0.00 | 30 | 1017.4 |
| 20260904212603 | 68 | 227 | 2.0 | 4.0 | 0.00 | 0.00 | 0.00 | 30 | 1017.5 |
| 20260904212503 | 69 | 230 | 2.0 | 4.0 | 0.00 | 0.00 | 0.00 | 30 | 1017.3 |
| 20260904212418 | 69 | 232 | 2.0 | 4.0 | 0.00 | 0.00 | 0.00 | 30 | 1017.4 |
| 20260904212404 | 69 | 235 | 2.0 | 4.0 | 0.00 | 0.00 | 0.00 | 30 | 1017.4 |
| 20260904212306 | 69 | 237 | 2.0 | 4.0 | 0.00 | 0.00 | 0.00 | 30 | 1017.3 |
| 20260904212103 | 69 | 236 | 1.0 | 4.0 | 0.00 | 0.00 | 0.00 | 30 | 1017.3 |
| 20260904212005 | 69 | 227 | 2.0 | 4.0 | 0.00 | 0.00 | 0.00 | 30 | 1017.6 |
| 20260904211903 | 69 | 223 | 1.0 | 4.0 | 0.00 | 0.00 | 0.00 | 29 | 1017.5 |
| 20260904211803 | 69 | 205 | 2.0 | 4.0 | 0.00 | 0.00 | 0.00 | 29 | 1017.5 |
| 20260904211703 | 69 | 193 | 1.0 | 4.0 | 0.00 | 0.00 | 0.00 | 29 | 1017.3 |
| 20260904211603 | 69 | 194 | 1.0 | 4.0 | 0.00 | 0.00 | 0.00 | 29 | 1017.2 |
| 20260904211505 | 69 | 193 | 2.0 | 4.0 | 0.00 | 0.00 | 0.00 | 29 | 1017.2 |
| 20260904211403 | 69 | 188 | 2.0 | 4.0 | 0.00 | 0.00 | 0.00 | 29 | 1017.3 |
| 20260904211303 | 69 | 203 | 2.0 | 4.0 | 0.00 | 0.00 | 0.00 | 29 | 1017.1 |
| 20260904211203 | 69 | 217 | 2.0 | 4.0 | 0.00 | 0.00 | 0.00 | 29 | 1017.2 |
| 20260904211103 | 69 | 226 | 0.0 | 2.0 | 0.00 | 0.00 | 0.00 | 29 | 1017.2 |
| 20260904211003 | 69 | 234 | 1.0 | 2.0 | 0.00 | 0.00 | 0.00 | 29 | 1017.4 |
| 20260904210903 | 69 | 231 | 1.0 | 2.0 | 0.00 | 0.00 | 0.00 | 29 | 1017.2 |
| 20260904210803 | 69 | 212 | 1.0 | 2.0 | 0.00 | 0.00 | 0.00 | 29 | 1017.2 |
| 20260904210703 | 69 | 219 | 0.0 | 4.0 | 0.00 | 0.00 | 0.00 | 29 | 1017.2 |
| 20260904210604 | 69 | 222 | 1.0 | 4.0 | 0.00 | 0.00 | 0.00 | 29 | 1017.2 |
| 20260904210514 | 68 | 213 | 2.0 | 4.0 | 0.00 | 0.00 | 0.00 | 29 | 1017.4 |
| 20260904210403 | 68 | 205 | 2.0 | 4.0 | 0.00 | 0.00 | 0.00 | 29 | 1017.3 |
| 20260904210217 | 69 | 221 | 3.0 | 4.0 | 0.00 | 0.00 | 0.00 | 29 | 1017.3 |
| 20260904210203 | 69 | 217 | 3.0 | 4.0 | 0.00 | 0.00 | 0.00 | 29 | 1017.3 |
| 20260904210018 | 69 | 198 | 2.0 | 4.0 | 0.00 | 0.00 | 0.00 | 29 | 1017.2 |
| 20260904205903 | 69 | 201 | 3.0 | 4.0 | 0.00 | 0.00 | 0.00 | 28 | 1017.3 |
| 20260904205705 | 69 | 203 | 2.0 | 4.0 | 0.00 | 0.00 | 0.00 | 28 | 1017.3 |
| 20260904205603 | 69 | 217 | 2.0 | 6.0 | 0.00 | 0.00 | 0.00 | 29 | 1017.5 |
| 20260904205503 | 69 | 230 | 2.0 | 6.0 | 0.00 | 0.00 | 0.00 | 29 | 1017.2 |
| 20260904205403 | 69 | 231 | 2.0 | 6.0 | 0.00 | 0.00 | 0.00 | 29 | 1017.3 |
| 20260904205305 | 69 | 231 | 1.0 | 6.0 | 0.00 | 0.00 | 0.00 | 29 | 1017.6 |
| 20260904205203 | 69 | 227 | 2.0 | 6.0 | 0.00 | 0.00 | 0.00 | 29 | 1017.3 |
| 20260904205103 | 69 | 224 | 2.0 | 6.0 | 0.00 | 0.00 | 0.00 | 29 | 1017.4 |
| 20260904205020 | 69 | 229 | 2.0 | 6.0 | 0.00 | 0.00 | 0.00 | 28 | 1017.5 |
| 20260904205003 | 69 | 238 | 2.0 | 6.0 | 0.00 | 0.00 | 0.00 | 28 | 1017.5 |
| 20260904204919 | 69 | 250 | 2.0 | 6.0 | 0.00 | 0.00 | 0.00 | 29 | 1017.4 |
| 20260904204903 | 69 | 249 | 2.0 | 6.0 | 0.00 | 0.00 | 0.00 | 29 | 1017.4 |
| 20260904204603 | 69 | 273 | 2.0 | 7.0 | 0.00 | 0.00 | 0.00 | 28 | 1017.3 |
| 20260904204503 | 69 | 252 | 2.0 | 7.0 | 0.00 | 0.00 | 0.00 | 28 | 1017.3 |
| 20260904204403 | 69 | 236 | 2.0 | 7.0 | 0.00 | 0.00 | 0.00 | 28 | 1017.5 |
| 20260904204305 | 69 | 192 | 2.0 | 7.0 | 0.00 | 0.00 | 0.00 | 28 | 1017.3 |
| 20260904204203 | 69 | 158 | 4.0 | 7.0 | 0.00 | 0.00 | 0.00 | 28 | 1017.3 |
| 20260904204103 | 69 | 137 | 2.0 | 7.0 | 0.00 | 0.00 | 0.00 | 28 | 1017.3 |
| 20260904204005 | 69 | 155 | 4.0 | 7.0 | 0.00 | 0.00 | 0.00 | 28 | 1017.3 |
| 20260904203903 | 69 | 183 | 2.0 | 7.0 | 0.00 | 0.00 | 0.00 | 28 | 1017.0 |
| 20260904203803 | 70 | 207 | 2.0 | 8.0 | 0.00 | 0.00 | 0.00 | 28 | 1017.3 |
| 20260904203703 | 69 | 217 | 4.0 | 8.0 | 0.00 | 0.00 | 0.00 | 28 | 1017.3 |
| 20260904203503 | 70 | 227 | 2.0 | 8.0 | 0.00 | 0.00 | 0.00 | 28 | 1017.3 |
| 20260904203403 | 69 | 239 | 4.0 | 8.0 | 0.00 | 0.00 | 0.00 | 27 | 1017.2 |
| 20260904203303 | 70 | 239 | 5.0 | 8.0 | 0.00 | 0.00 | 0.00 | 27 | 1017.2 |
| 20260904203203 | 70 | 244 | 4.0 | 7.0 | 0.00 | 0.00 | 0.00 | 27 | 1017.2 |
| 20260904203117 | 70 | 246 | 2.0 | 7.0 | 0.00 | 0.00 | 0.00 | 27 | 1017.1 |
| 20260904203003 | 70 | 242 | 2.0 | 8.0 | 0.00 | 0.00 | 0.00 | 28 | 1017.0 |
| 20260904202817 | 70 | 235 | 4.0 | 8.0 | 0.00 | 0.00 | 0.00 | 28 | 1017.0 |
| 20260904202803 | 70 | 236 | 4.0 | 8.0 | 0.00 | 0.00 | 0.00 | 28 | 1017.0 |
| 20260904202703 | 70 | 228 | 3.0 | 8.0 | 0.00 | 0.00 | 0.00 | 27 | 1017.0 |
| 20260904202503 | 70 | 198 | 4.0 | 7.0 | 0.00 | 0.00 | 0.00 | 27 | 1017.0 |
| 20260904202403 | 71 | 208 | 4.0 | 7.0 | 0.00 | 0.00 | 0.00 | 27 | 1017.0 |
| 20260904202306 | 72 | 205 | 2.0 | 7.0 | 0.00 | 0.00 | 0.00 | 27 | 1017.2 |
| 20260904202203 | 72 | 209 | 2.0 | 7.0 | 0.00 | 0.00 | 0.00 | 27 | 1017.2 |
| 20260904202117 | 71 | 220 | 4.0 | 7.0 | 0.00 | 0.00 | 0.00 | 27 | 1017.1 |
| 20260904202103 | 71 | 223 | 4.0 | 7.0 | 0.00 | 0.00 | 0.00 | 27 | 1017.1 |
| 20260904202018 | 72 | 231 | 3.0 | 7.0 | 0.00 | 0.00 | 0.00 | 27 | 1017.3 |
| 20260904202003 | 72 | 235 | 3.0 | 7.0 | 0.00 | 0.00 | 0.00 | 27 | 1017.3 |
| 20260904201618 | 71 | 210 | 3.0 | 8.0 | 0.00 | 0.00 | 0.00 | 27 | 1016.9 |
| 20260904201603 | 71 | 209 | 3.0 | 8.0 | 0.00 | 0.00 | 0.00 | 27 | 1016.9 |
| 20260904201517 | 71 | 215 | 4.0 | 8.0 | 0.00 | 0.00 | 0.00 | 27 | 1017.1 |
| 20260904201503 | 71 | 219 | 4.0 | 8.0 | 0.00 | 0.00 | 0.00 | 28 | 1017.2 |
| 20260904201203 | 71 | 256 | 2.0 | 6.0 | 0.00 | 0.00 | 0.00 | 27 | 1016.8 |
| 20260904201103 | 71 | 263 | 2.0 | 6.0 | 0.00 | 0.00 | 0.00 | 27 | 1017.3 |
| 20260904201003 | 71 | 253 | 4.0 | 6.0 | 0.00 | 0.00 | 0.00 | 27 | 1017.0 |
| 20260904200903 | 72 | 235 | 3.0 | 4.0 | 0.00 | 0.00 | 0.00 | 26 | 1017.0 |
| 20260904200803 | 72 | 236 | 2.0 | 4.0 | 0.00 | 0.00 | 0.00 | 27 | 1017.1 |
| 20260904200703 | 72 | 240 | 2.0 | 6.0 | 0.00 | 0.00 | 0.00 | 27 | 1017.1 |
| 20260904200603 | 71 | 236 | 2.0 | 8.0 | 0.00 | 0.00 | 0.00 | 27 | 1017.2 |
| 20260904200503 | 71 | 228 | 2.0 | 8.0 | 0.00 | 0.00 | 0.00 | 27 | 1017.2 |
| 20260904200403 | 71 | 236 | 2.0 | 8.0 | 0.00 | 0.00 | 0.00 | 27 | 1017.1 |
| 20260904200303 | 71 | 241 | 3.0 | 8.0 | 0.00 | 0.00 | 0.00 | 28 | 1017.3 |
| 20260904200218 | 71 | 237 | 3.0 | 11.0 | 0.00 | 0.00 | 0.00 | 28 | 1017.1 |
| 20260904200203 | 71 | 239 | 3.0 | 11.0 | 0.00 | 0.00 | 0.00 | 28 | 1017.1 |
| 20260904195903 | 71 | 240 | 3.0 | 11.0 | 0.00 | 0.00 | 0.00 | 28 | 1017.0 |
| 20260904195803 | 71 | 245 | 3.0 | 11.0 | 0.00 | 0.00 | 0.00 | 28 | 1017.1 |
| 20260904195703 | 71 | 243 | 5.0 | 11.0 | 0.00 | 0.00 | 0.00 | 28 | 1017.2 |
| 20260904195603 | 72 | 244 | 2.0 | 9.0 | 0.00 | 0.00 | 0.00 | 27 | 1017.2 |
| 20260904195519 | 72 | 244 | 3.0 | 9.0 | 0.00 | 0.00 | 0.00 | 28 | 1017.1 |
| 20260904195503 | 71 | 245 | 3.0 | 9.0 | 0.00 | 0.00 | 0.00 | 28 | 1016.9 |
| 20260904195403 | 71 | 248 | 4.0 | 9.0 | 0.00 | 0.00 | 0.00 | 28 | 1016.9 |
| 20260904195203 | 71 | 257 | 4.0 | 8.0 | 0.00 | 0.00 | 0.00 | 28 | 1017.1 |
| 20260904195103 | 72 | 262 | 2.0 | 8.0 | 0.00 | 0.00 | 0.00 | 26 | 1017.0 |
| 20260904195003 | 72 | 261 | 2.0 | 8.0 | 0.00 | 0.00 | 0.00 | 27 | 1017.2 |
| 20260904194903 | 71 | 257 | 2.0 | 8.0 | 0.00 | 0.00 | 0.00 | 26 | 1017.3 |
| 20260904194803 | 71 | 251 | 2.0 | 8.0 | 0.00 | 0.00 | 0.00 | 27 | 1016.8 |
| 20260904194717 | 71 | 246 | 2.0 | 8.0 | 0.00 | 0.00 | 0.00 | 27 | 1017.1 |
| 20260904194703 | 71 | 245 | 4.0 | 8.0 | 0.00 | 0.00 | 0.00 | 27 | 1017.1 |
| 20260904194603 | 71 | 237 | 5.0 | 9.0 | 0.00 | 0.00 | 0.00 | 27 | 1017.2 |
| 20260904194518 | 71 | 231 | 4.0 | 14.0 | 0.00 | 0.00 | 0.00 | 27 | 1017.1 |
| 20260904194403 | 71 | 227 | 4.0 | 14.0 | 0.00 | 0.00 | 0.00 | 28 | 1017.1 |
| 20260904194318 | 71 | 226 | 4.0 | 14.0 | 0.00 | 0.00 | 0.00 | 28 | 1017.2 |
| 20260904194203 | 71 | 230 | 5.0 | 14.0 | 0.00 | 0.00 | 0.00 | 28 | 1017.0 |
| 20260904194003 | 72 | 243 | 8.0 | 14.0 | 0.00 | 0.00 | 0.00 | 27 | 1017.1 |
| 20260904193903 | 72 | 260 | 8.0 | 14.0 | 0.00 | 0.00 | 0.00 | 27 | 1017.0 |
| 20260904193817 | 72 | 289 | 3.0 | 7.0 | 0.00 | 0.00 | 0.00 | 26 | 1017.0 |
| 20260904193803 | 72 | 286 | 3.0 | 7.0 | 0.00 | 0.00 | 0.00 | 26 | 1017.0 |
| 20260904193703 | 73 | 266 | 0.0 | 4.0 | 0.00 | 0.00 | 0.00 | 27 | 1016.9 |
| 20260904193618 | 72 | 272 | 1.0 | 4.0 | 0.00 | 0.00 | 0.00 | 27 | 1017.1 |
| 20260904193503 | 72 | 255 | 2.0 | 6.0 | 0.00 | 0.00 | 0.00 | 26 | 1017.2 |
| 20260904193303 | 72 | 232 | 2.0 | 6.0 | 0.00 | 0.00 | 0.00 | 26 | 1017.1 |
| 20260904193218 | 72 | 231 | 3.0 | 6.0 | 0.00 | 0.00 | 0.00 | 27 | 1017.3 |
| 20260904193203 | 72 | 232 | 3.0 | 6.0 | 0.00 | 0.00 | 0.00 | 27 | 1017.3 |
| 20260904193103 | 72 | 227 | 3.0 | 6.0 | 0.00 | 0.00 | 0.00 | 27 | 1017.0 |
| 20260904192918 | 72 | 235 | 3.0 | 8.0 | 0.00 | 0.00 | 0.00 | 27 | 1017.0 |
| 20260904192903 | 72 | 234 | 3.0 | 8.0 | 0.00 | 0.00 | 0.00 | 27 | 1017.0 |
| 20260904192803 | 71 | 248 | 2.0 | 8.0 | 0.00 | 0.00 | 0.00 | 27 | 1017.1 |
| 20260904192603 | 71 | 245 | 4.0 | 8.0 | 0.00 | 0.00 | 0.00 | 27 | 1017.0 |
| 20260904192503 | 71 | 244 | 4.0 | 9.0 | 0.00 | 0.00 | 0.00 | 27 | 1017.0 |
| 20260904192403 | 71 | 248 | 3.0 | 9.0 | 0.00 | 0.00 | 0.00 | 27 | 1017.1 |
| 20260904192306 | 71 | 248 | 5.0 | 9.0 | 0.00 | 0.00 | 0.00 | 27 | 1017.1 |
| 20260904192218 | 71 | 246 | 5.0 | 11.0 | 0.00 | 0.00 | 0.00 | 27 | 1017.2 |
| 20260904192203 | 71 | 245 | 5.0 | 11.0 | 0.00 | 0.00 | 0.00 | 27 | 1017.2 |
| 20260904192103 | 71 | 242 | 4.0 | 11.0 | 0.00 | 0.00 | 0.00 | 27 | 1017.0 |
| 20260904191803 | 71 | 227 | 5.0 | 11.0 | 0.00 | 0.00 | 0.00 | 28 | 1017.1 |
| 20260904191703 | 71 | 230 | 6.0 | 11.0 | 0.00 | 0.00 | 0.00 | 27 | 1017.1 |
| 20260904191603 | 71 | 227 | 4.0 | 8.0 | 0.00 | 0.00 | 0.00 | 27 | 1017.1 |
| 20260904191503 | 71 | 228 | 4.0 | 8.0 | 0.00 | 0.00 | 0.00 | 27 | 1017.2 |
| 20260904191403 | 71 | 222 | 2.0 | 8.0 | 0.00 | 0.00 | 0.00 | 28 | 1017.1 |
| 20260904191303 | 70 | 233 | 2.0 | 8.0 | 0.00 | 0.00 | 0.00 | 27 | 1017.2 |
| 20260904191203 | 71 | 228 | 4.0 | 8.0 | 0.00 | 0.00 | 0.00 | 27 | 1017.3 |
| 20260904191103 | 71 | 230 | 2.0 | 7.0 | 0.00 | 0.00 | 0.00 | 29 | 1017.0 |
| 20260904191003 | 70 | 237 | 2.0 | 7.0 | 0.00 | 0.00 | 0.00 | 29 | 1017.1 |
| 20260904190903 | 70 | 245 | 4.0 | 7.0 | 0.00 | 0.00 | 0.00 | 28 | 1017.2 |
| 20260904190818 | 70 | 248 | 4.0 | 7.0 | 0.00 | 0.00 | 0.00 | 29 | 1017.2 |
| 20260904190803 | 70 | 249 | 4.0 | 7.0 | 0.00 | 0.00 | 0.00 | 29 | 1017.2 |
| 20260904190703 | 71 | 252 | 3.0 | 11.0 | 0.00 | 0.00 | 0.00 | 28 | 1017.3 |
| 20260904190503 | 71 | 246 | 3.0 | 11.0 | 0.00 | 0.00 | 0.00 | 27 | 1017.2 |
| 20260904190403 | 71 | 247 | 3.0 | 11.0 | 0.00 | 0.00 | 0.00 | 27 | 1017.2 |
| 20260904190303 | 70 | 244 | 3.0 | 11.0 | 0.00 | 0.00 | 0.00 | 27 | 1017.3 |
| 20260904190218 | 70 | 247 | 6.0 | 11.0 | 0.00 | 0.00 | 0.00 | 27 | 1017.2 |
| 20260904190203 | 70 | 250 | 6.0 | 11.0 | 0.00 | 0.00 | 0.00 | 27 | 1017.2 |
| 20260904185903 | 72 | 242 | 1.0 | 7.0 | 0.00 | 0.00 | 0.00 | 28 | 1017.3 |
| 20260904185803 | 71 | 243 | 3.0 | 7.0 | 0.00 | 0.00 | 0.00 | 28 | 1017.2 |
| 20260904185703 | 71 | 241 | 3.0 | 7.0 | 0.00 | 0.00 | 0.00 | 28 | 1017.5 |
| 20260904185603 | 71 | 229 | 3.0 | 7.0 | 0.00 | 0.00 | 0.00 | 28 | 1017.2 |
| 20260904185503 | 71 | 220 | 4.0 | 7.0 | 0.00 | 0.00 | 0.00 | 28 | 1017.5 |
| 20260904185403 | 72 | 229 | 3.0 | 7.0 | 0.00 | 0.00 | 0.00 | 28 | 1017.6 |
| 20260904185306 | 72 | 233 | 2.0 | 8.0 | 0.00 | 0.00 | 0.00 | 28 | 1017.5 |
| 20260904185203 | 71 | 213 | 2.0 | 8.0 | 0.00 | 0.00 | 0.00 | 29 | 1017.5 |
| 20260904185103 | 71 | 215 | 3.0 | 8.0 | 0.00 | 0.00 | 0.00 | 29 | 1017.5 |
| 20260904185017 | 71 | 219 | 4.0 | 8.0 | 0.00 | 0.00 | 0.00 | 29 | 1017.7 |
| 20260904185003 | 71 | 224 | 4.0 | 8.0 | 0.00 | 0.00 | 0.00 | 29 | 1017.7 |
| 20260904184903 | 72 | 240 | 3.0 | 8.0 | 0.00 | 0.00 | 0.00 | 29 | 1017.4 |
| 20260904184703 | 71 | 245 | 3.0 | 7.0 | 0.00 | 0.00 | 0.00 | 29 | 1017.3 |
| 20260904184617 | 71 | 250 | 4.0 | 7.0 | 0.00 | 0.00 | 0.00 | 29 | 1017.4 |
| 20260904184603 | 71 | 251 | 4.0 | 7.0 | 0.00 | 0.00 | 0.00 | 29 | 1017.4 |
| 20260904184503 | 72 | 248 | 2.0 | 7.0 | 0.00 | 0.00 | 0.00 | 29 | 1017.4 |
| 20260904184317 | 72 | 260 | 2.0 | 4.0 | 0.00 | 0.00 | 0.00 | 29 | 1017.4 |
| 20260904184303 | 71 | 283 | 2.0 | 7.0 | 0.00 | 0.00 | 0.00 | 29 | 1017.3 |
| 20260904184203 | 72 | 312 | 2.0 | 8.0 | 0.00 | 0.00 | 0.00 | 29 | 1017.5 |
| 20260904184120 | 72 | 311 | 2.0 | 8.0 | 0.00 | 0.00 | 0.00 | 28 | 1017.5 |
| 20260904184003 | 72 | 305 | 2.0 | 8.0 | 0.00 | 0.00 | 0.00 | 28 | 1017.5 |
| 20260904183917 | 71 | 299 | 2.0 | 8.0 | 0.00 | 0.00 | 0.00 | 28 | 1017.5 |
| 20260904183803 | 71 | 265 | 3.0 | 8.0 | 0.00 | 0.00 | 0.00 | 28 | 1017.5 |
| 20260904183618 | 71 | 249 | 3.0 | 8.0 | 0.00 | 0.00 | 0.00 | 29 | 1017.6 |
| 20260904183603 | 71 | 246 | 3.0 | 8.0 | 0.00 | 0.00 | 0.00 | 29 | 1017.6 |
| 20260904183503 | 71 | 246 | 3.0 | 8.0 | 0.00 | 0.00 | 0.00 | 30 | 1017.5 |
| 20260904183317 | 70 | 248 | 5.0 | 8.0 | 0.00 | 0.00 | 0.00 | 29 | 1017.7 |
| 20260904183303 | 70 | 250 | 5.0 | 8.0 | 0.00 | 0.00 | 0.00 | 29 | 1017.7 |
| 20260904183203 | 71 | 245 | 3.0 | 7.0 | 0.00 | 0.00 | 0.00 | 29 | 1017.7 |
| 20260904183003 | 70 | 244 | 3.0 | 6.0 | 0.00 | 0.00 | 0.00 | 30 | 1017.7 |
| 20260904182903 | 71 | 245 | 2.0 | 6.0 | 0.00 | 0.00 | 0.00 | 31 | 1017.7 |
| 20260904182803 | 71 | 231 | 2.0 | 6.0 | 0.00 | 0.00 | 0.00 | 31 | 1017.5 |
| 20260904182703 | 70 | 245 | 2.0 | 7.0 | 0.00 | 0.00 | 0.00 | 31 | 1017.7 |
| 20260904182603 | 70 | 234 | 4.0 | 7.0 | 0.00 | 0.00 | 0.00 | 31 | 1017.5 |
| 20260904182503 | 71 | 215 | 2.0 | 7.0 | 0.00 | 0.00 | 0.00 | 30 | 1017.7 |
| 20260904182417 | 71 | 211 | 2.0 | 7.0 | 0.00 | 0.00 | 0.00 | 30 | 1017.7 |
| 20260904182403 | 71 | 210 | 2.0 | 7.0 | 0.00 | 0.00 | 0.00 | 30 | 1017.7 |
| 20260904182306 | 71 | 226 | 4.0 | 7.0 | 0.00 | 0.00 | 0.00 | 30 | 1017.5 |
| 20260904182103 | 71 | 243 | 2.0 | 4.0 | 0.00 | 0.00 | 0.00 | 31 | 1017.8 |
| 20260904182017 | 71 | 257 | 2.0 | 4.0 | 0.00 | 0.00 | 0.00 | 31 | 1017.5 |
| 20260904182003 | 71 | 263 | 2.0 | 4.0 | 0.00 | 0.00 | 0.00 | 31 | 1017.5 |
| 20260904181903 | 72 | 296 | 1.0 | 4.0 | 0.00 | 0.00 | 0.00 | 30 | 1017.8 |
| 20260904181703 | 72 | 291 | 1.0 | 4.0 | 0.00 | 0.00 | 0.00 | 29 | 1017.8 |
| 20260904181603 | 72 | 268 | 2.0 | 4.0 | 0.00 | 0.00 | 0.00 | 30 | 1017.9 |
| 20260904181518 | 71 | 255 | 2.0 | 4.0 | 0.00 | 0.00 | 0.00 | 30 | 1017.7 |
| 20260904181503 | 71 | 253 | 2.0 | 4.0 | 0.00 | 0.00 | 0.00 | 31 | 1017.9 |
| 20260904181403 | 71 | 244 | 2.0 | 4.0 | 0.00 | 0.00 | 0.00 | 31 | 1017.6 |
| 20260904181203 | 70 | 240 | 1.0 | 8.0 | 0.00 | 0.00 | 0.00 | 32 | 1017.7 |
| 20260904181103 | 70 | 264 | 3.0 | 8.0 | 0.00 | 0.00 | 0.00 | 31 | 1017.9 |
| 20260904181003 | 70 | 279 | 3.0 | 8.0 | 0.00 | 0.00 | 0.00 | 31 | 1017.8 |
| 20260904180903 | 70 | 280 | 3.0 | 8.0 | 0.00 | 0.00 | 0.00 | 31 | 1018.1 |
| 20260904180803 | 70 | 281 | 4.0 | 8.0 | 0.00 | 0.00 | 0.00 | 31 | 1017.9 |
| 20260904180703 | 71 | 260 | 4.0 | 7.0 | 0.00 | 0.00 | 0.00 | 31 | 1017.7 |
| 20260904180603 | 71 | 242 | 2.0 | 7.0 | 0.00 | 0.00 | 0.00 | 32 | 1018.0 |
| 20260904180503 | 70 | 237 | 3.0 | 7.0 | 0.00 | 0.00 | 0.00 | 32 | 1017.9 |
| 20260904180403 | 70 | 238 | 4.0 | 7.0 | 0.00 | 0.00 | 0.00 | 31 | 1017.8 |
| 20260904180303 | 70 | 250 | 3.0 | 8.0 | 0.00 | 0.00 | 0.00 | 32 | 1018.1 |
| 20260904180217 | 70 | 246 | 4.0 | 8.0 | 0.00 | 0.00 | 0.00 | 31 | 1017.9 |
| 20260904180203 | 70 | 243 | 4.0 | 8.0 | 0.00 | 0.00 | 0.00 | 31 | 1017.9 |
| 20260904180118 | 71 | 236 | 2.0 | 8.0 | 0.00 | 0.00 | 0.00 | 31 | 1018.2 |
| 20260904180103 | 71 | 235 | 2.0 | 8.0 | 0.00 | 0.00 | 0.00 | 31 | 1018.2 |
| 20260904175818 | 70 | 207 | 5.0 | 8.0 | 0.00 | 0.00 | 0.00 | 31 | 1017.9 |
| 20260904175803 | 70 | 205 | 5.0 | 8.0 | 0.00 | 0.00 | 0.00 | 31 | 1017.9 |
| 20260904175703 | 70 | 207 | 4.0 | 8.0 | 0.00 | 0.00 | 0.00 | 31 | 1018.1 |
| 20260904175617 | 71 | 210 | 2.0 | 8.0 | 0.00 | 0.00 | 0.00 | 31 | 1017.8 |
| 20260904175503 | 71 | 207 | 3.0 | 8.0 | 0.00 | 0.00 | 0.00 | 31 | 1017.9 |
| 20260904175317 | 70 | 202 | 4.0 | 8.0 | 0.00 | 0.00 | 0.00 | 31 | 1018.0 |
| 20260904175305 | 70 | 204 | 4.0 | 8.0 | 0.00 | 0.00 | 0.00 | 31 | 1018.0 |
| 20260904175203 | 71 | 214 | 3.0 | 7.0 | 0.00 | 0.00 | 0.00 | 31 | 1017.8 |
| 20260904175003 | 71 | 240 | 4.0 | 7.0 | 0.00 | 0.00 | 0.00 | 30 | 1017.9 |
| 20260904174903 | 71 | 255 | 3.0 | 4.0 | 0.00 | 0.00 | 0.00 | 30 | 1018.1 |
| 20260904174803 | 71 | 252 | 2.0 | 4.0 | 0.00 | 0.00 | 0.00 | 31 | 1018.1 |
| 20260904174703 | 71 | 236 | 2.0 | 7.0 | 0.00 | 0.00 | 0.00 | 30 | 1017.9 |
| 20260904174617 | 70 | 234 | 2.0 | 7.0 | 0.00 | 0.00 | 0.00 | 30 | 1017.9 |
| 20260904174603 | 70 | 235 | 2.0 | 7.0 | 0.00 | 0.00 | 0.00 | 30 | 1017.9 |
| 20260904174503 | 69 | 245 | 1.0 | 7.0 | 0.00 | 0.00 | 0.00 | 31 | 1018.1 |
| 20260904174303 | 69 | 250 | 2.0 | 8.0 | 0.00 | 0.00 | 0.00 | 31 | 1018.0 |
| 20260904174203 | 69 | 254 | 4.0 | 8.0 | 0.00 | 0.00 | 0.00 | 31 | 1018.2 |
| 20260904174103 | 69 | 255 | 5.0 | 9.0 | 0.00 | 0.00 | 0.00 | 31 | 1018.2 |
| 20260904174003 | 69 | 255 | 5.0 | 9.0 | 0.00 | 0.00 | 0.00 | 31 | 1018.2 |
| 20260904173903 | 69 | 254 | 4.0 | 9.0 | 0.00 | 0.00 | 0.00 | 30 | 1018.2 |
| 20260904173803 | 69 | 242 | 4.0 | 9.0 | 0.00 | 0.00 | 0.00 | 30 | 1018.2 |
| 20260904173703 | 69 | 238 | 4.0 | 9.0 | 0.00 | 0.00 | 0.00 | 31 | 1018.2 |
| 20260904173617 | 69 | 239 | 6.0 | 9.0 | 0.00 | 0.00 | 0.00 | 31 | 1018.2 |
| 20260904173603 | 69 | 240 | 6.0 | 9.0 | 0.00 | 0.00 | 0.00 | 31 | 1018.2 |
| 20260904173503 | 69 | 236 | 4.0 | 9.0 | 0.00 | 0.00 | 0.00 | 31 | 1018.0 |
| 20260904173303 | 69 | 250 | 4.0 | 8.0 | 0.00 | 0.00 | 0.00 | 32 | 1018.1 |
| 20260904173205 | 70 | 254 | 4.0 | 8.0 | 0.00 | 0.00 | 0.00 | 31 | 1018.0 |
| 20260904173118 | 70 | 244 | 2.0 | 6.0 | 0.00 | 0.00 | 0.00 | 32 | 1018.0 |
| 20260904173103 | 70 | 241 | 1.0 | 6.0 | 0.00 | 0.00 | 0.00 | 32 | 1018.1 |
| 20260904173003 | 69 | 237 | 2.0 | 6.0 | 0.00 | 0.00 | 0.00 | 33 | 1018.1 |
| 20260904172803 | 69 | 242 | 4.0 | 9.0 | 0.00 | 0.00 | 0.00 | 32 | 1018.3 |
| 20260904172703 | 68 | 235 | 2.0 | 9.0 | 0.00 | 0.00 | 0.00 | 32 | 1018.3 |
| 20260904172603 | 69 | 239 | 4.0 | 9.0 | 0.00 | 0.00 | 0.00 | 32 | 1018.1 |
| 20260904172503 | 69 | 239 | 3.0 | 9.0 | 0.00 | 0.00 | 0.00 | 32 | 1018.2 |
| 20260904172403 | 70 | 239 | 4.0 | 9.0 | 0.00 | 0.00 | 0.00 | 33 | 1018.3 |
| 20260904172317 | 70 | 235 | 4.0 | 8.0 | 0.00 | 0.00 | 0.00 | 33 | 1018.1 |
| 20260904172305 | 69 | 233 | 3.0 | 7.0 | 0.00 | 0.00 | 0.00 | 33 | 1018.4 |
| 20260904172203 | 69 | 232 | 2.0 | 9.0 | 0.00 | 0.00 | 0.00 | 33 | 1018.1 |
| 20260904172118 | 69 | 225 | 4.0 | 9.0 | 0.00 | 0.00 | 0.00 | 33 | 1018.3 |
| 20260904172003 | 68 | 222 | 4.0 | 9.0 | 0.00 | 0.00 | 0.00 | 33 | 1018.1 |
| 20260904171806 | 68 | 220 | 4.0 | 9.0 | 0.00 | 0.00 | 0.00 | 32 | 1018.6 |
| 20260904171703 | 69 | 226 | 4.0 | 9.0 | 0.00 | 0.00 | 0.00 | 32 | 1018.5 |
| 20260904171603 | 69 | 230 | 5.0 | 9.0 | 0.00 | 0.00 | 0.00 | 32 | 1018.4 |
| 20260904171503 | 69 | 230 | 5.0 | 9.0 | 0.00 | 0.00 | 0.00 | 32 | 1018.5 |
| 20260904171403 | 69 | 238 | 4.0 | 7.0 | 0.00 | 0.00 | 0.00 | 32 | 1018.4 |
| 20260904171303 | 69 | 241 | 5.0 | 7.0 | 0.00 | 0.00 | 0.00 | 32 | 1018.5 |
| 20260904171205 | 69 | 239 | 4.0 | 6.0 | 0.00 | 0.00 | 0.00 | 32 | 1018.4 |
| 20260904171120 | 69 | 246 | 2.0 | 4.0 | 0.00 | 0.00 | 0.00 | 32 | 1018.6 |
| 20260904171016 | 69 | 237 | 2.0 | 4.0 | 0.00 | 0.00 | 0.00 | 32 | 1018.6 |
| 20260904171003 | 69 | 230 | 2.0 | 4.0 | 0.00 | 0.00 | 0.00 | 32 | 1018.6 |
| 20260904170703 | 69 | 258 | 1.0 | 9.0 | 0.00 | 0.00 | 0.00 | 32 | 1018.6 |
| 20260904170603 | 69 | 258 | 2.0 | 9.0 | 0.00 | 0.00 | 0.00 | 31 | 1018.7 |
| 20260904170503 | 69 | 263 | 2.0 | 9.0 | 0.00 | 0.00 | 0.00 | 32 | 1018.5 |
| 20260904170403 | 69 | 266 | 4.0 | 9.0 | 0.00 | 0.00 | 0.00 | 31 | 1018.6 |
| 20260904170303 | 69 | 252 | 2.0 | 9.0 | 0.00 | 0.00 | 0.00 | 32 | 1018.7 |
| 20260904170203 | 68 | 239 | 5.0 | 9.0 | 0.00 | 0.00 | 0.00 | 32 | 1018.6 |
| 20260904170003 | 69 | 238 | 3.0 | 8.0 | 0.00 | 0.00 | 0.00 | 33 | 1018.8 |
| 20260904165903 | 68 | 228 | 4.0 | 8.0 | 0.00 | 0.00 | 0.00 | 32 | 1019.0 |
| 20260904165817 | 68 | 230 | 4.0 | 8.0 | 0.00 | 0.00 | 0.00 | 32 | 1018.6 |
| 20260904165803 | 68 | 231 | 4.0 | 8.0 | 0.00 | 0.00 | 0.00 | 32 | 1018.6 |
| 20260904165703 | 68 | 239 | 3.0 | 8.0 | 0.00 | 0.00 | 0.00 | 32 | 1018.8 |
| 20260904165517 | 68 | 237 | 4.0 | 8.0 | 0.00 | 0.00 | 0.00 | 32 | 1018.7 |
| 20260904165503 | 68 | 235 | 6.0 | 8.0 | 0.00 | 0.00 | 0.00 | 31 | 1018.9 |
| 20260904165403 | 69 | 244 | 4.0 | 8.0 | 0.00 | 0.00 | 0.00 | 31 | 1018.8 |
| 20260904165317 | 69 | 248 | 2.0 | 8.0 | 0.00 | 0.00 | 0.00 | 32 | 1018.8 |
| 20260904165203 | 68 | 246 | 3.0 | 8.0 | 0.00 | 0.00 | 0.00 | 31 | 1018.8 |
| 20260904165118 | 68 | 236 | 6.0 | 11.0 | 0.00 | 0.00 | 0.00 | 30 | 1019.0 |
| 20260904165003 | 68 | 224 | 3.0 | 11.0 | 0.00 | 0.00 | 0.00 | 31 | 1019.2 |
| 20260904164803 | 68 | 202 | 4.0 | 11.0 | 0.00 | 0.00 | 0.00 | 31 | 1019.1 |
| 20260904164703 | 68 | 191 | 7.0 | 11.0 | 0.00 | 0.00 | 0.00 | 31 | 1018.9 |
| 20260904164617 | 68 | 190 | 4.0 | 11.0 | 0.00 | 0.00 | 0.00 | 31 | 1019.0 |
| 20260904164603 | 68 | 192 | 4.0 | 11.0 | 0.00 | 0.00 | 0.00 | 31 | 1019.0 |
| 20260904164503 | 69 | 203 | 5.0 | 11.0 | 0.00 | 0.00 | 0.00 | 31 | 1018.8 |
| 20260904164303 | 69 | 235 | 3.0 | 14.0 | 0.00 | 0.00 | 0.00 | 31 | 1019.1 |
| 20260904164203 | 68 | 251 | 1.0 | 14.0 | 0.00 | 0.00 | 0.00 | 31 | 1019.0 |
| 20260904164105 | 68 | 258 | 4.0 | 14.0 | 0.00 | 0.00 | 0.00 | 30 | 1019.0 |
| 20260904164018 | 68 | 265 | 7.0 | 14.0 | 0.00 | 0.00 | 0.00 | 30 | 1019.0 |
| 20260904164003 | 68 | 266 | 7.0 | 14.0 | 0.00 | 0.00 | 0.00 | 30 | 1019.0 |
| 20260904163903 | 69 | 280 | 8.0 | 14.0 | 0.00 | 0.00 | 0.00 | 33 | 1019.1 |
| 20260904163703 | 69 | 266 | 1.0 | 4.0 | 0.00 | 0.00 | 0.00 | 33 | 1019.1 |
| 20260904163603 | 68 | 257 | 2.0 | 6.0 | 0.00 | 0.00 | 0.00 | 34 | 1019.1 |
| 20260904163503 | 69 | 259 | 1.0 | 6.0 | 0.00 | 0.00 | 0.00 | 33 | 1018.9 |
| 20260904163403 | 68 | 256 | 2.0 | 6.0 | 0.00 | 0.00 | 0.00 | 34 | 1019.2 |
| 20260904163303 | 68 | 245 | 3.0 | 6.0 | 0.00 | 0.00 | 0.00 | 34 | 1019.3 |
| 20260904163203 | 68 | 249 | 3.0 | 6.0 | 0.00 | 0.00 | 0.00 | 34 | 1019.2 |
| 20260904163103 | 70 | 256 | 0.0 | 6.0 | 0.00 | 0.00 | 0.00 | 33 | 1019.2 |
| 20260904163003 | 69 | 248 | 2.0 | 6.0 | 0.00 | 0.00 | 0.00 | 34 | 1019.3 |
| 20260904162903 | 68 | 244 | 2.0 | 6.0 | 0.00 | 0.00 | 0.00 | 34 | 1019.5 |
| 20260904162803 | 68 | 259 | 2.0 | 6.0 | 0.00 | 0.00 | 0.00 | 34 | 1019.4 |
| 20260904162718 | 67 | 253 | 2.0 | 6.0 | 0.00 | 0.00 | 0.00 | 34 | 1019.5 |
| 20260904162703 | 68 | 253 | 3.0 | 6.0 | 0.00 | 0.00 | 0.00 | 35 | 1019.6 |
| 20260904162603 | 68 | 247 | 2.0 | 6.0 | 0.00 | 0.00 | 0.00 | 35 | 1019.5 |
| 20260904162403 | 68 | 249 | 2.0 | 6.0 | 0.00 | 0.00 | 0.00 | 34 | 1019.4 |
| 20260904162306 | 68 | 237 | 3.0 | 6.0 | 0.00 | 0.00 | 0.00 | 35 | 1019.4 |
| 20260904162204 | 68 | 237 | 2.0 | 6.0 | 0.00 | 0.00 | 0.00 | 35 | 1019.6 |
| 20260904162117 | 68 | 236 | 4.0 | 6.0 | 0.00 | 0.00 | 0.00 | 35 | 1019.6 |
| 20260904162103 | 68 | 238 | 4.0 | 6.0 | 0.00 | 0.00 | 0.00 | 35 | 1019.6 |
| 20260904162003 | 69 | 225 | 2.0 | 6.0 | 0.00 | 0.00 | 0.00 | 35 | 1019.6 |
| 20260904161803 | 68 | 246 | 1.0 | 8.0 | 0.00 | 0.00 | 0.00 | 35 | 1019.6 |
| 20260904161703 | 68 | 243 | 2.0 | 8.0 | 0.00 | 0.00 | 0.00 | 36 | 1019.9 |
| 20260904161603 | 68 | 254 | 3.0 | 8.0 | 0.00 | 0.00 | 0.00 | 36 | 1019.7 |
| 20260904161504 | 67 | 261 | 2.0 | 8.0 | 0.00 | 0.00 | 0.00 | 35 | 1019.7 |
| 20260904161403 | 67 | 253 | 4.0 | 8.0 | 0.00 | 0.00 | 0.00 | 35 | 1019.7 |
| 20260904161303 | 67 | 244 | 5.0 | 9.0 | 0.00 | 0.00 | 0.00 | 35 | 1019.6 |
| 20260904161217 | 68 | 244 | 2.0 | 9.0 | 0.00 | 0.00 | 0.00 | 35 | 1019.8 |
| 20260904161203 | 68 | 243 | 2.0 | 9.0 | 0.00 | 0.00 | 0.00 | 35 | 1019.8 |
| 20260904161103 | 67 | 236 | 2.0 | 9.0 | 0.00 | 0.00 | 0.00 | 34 | 1019.7 |
| 20260904161018 | 67 | 239 | 3.0 | 9.0 | 0.00 | 0.00 | 0.00 | 34 | 1019.7 |
| 20260904160903 | 67 | 243 | 4.0 | 9.0 | 0.00 | 0.00 | 0.00 | 35 | 1019.7 |
| 20260904160703 | 68 | 257 | 2.0 | 6.0 | 0.00 | 0.00 | 0.00 | 36 | 1019.9 |
| 20260904160603 | 67 | 273 | 2.0 | 6.0 | 0.00 | 0.00 | 0.00 | 37 | 1019.7 |
| 20260904160503 | 67 | 250 | 2.0 | 6.0 | 0.00 | 0.00 | 0.00 | 38 | 1019.8 |
| 20260904160403 | 67 | 234 | 4.0 | 6.0 | 0.00 | 0.00 | 0.00 | 37 | 1020.0 |
| 20260904160303 | 68 | 237 | 1.0 | 4.0 | 0.00 | 0.00 | 0.00 | 37 | 1019.7 |
| 20260904160203 | 68 | 234 | 2.0 | 4.0 | 0.00 | 0.00 | 0.00 | 37 | 1019.8 |
| 20260904160103 | 67 | 221 | 2.0 | 4.0 | 0.00 | 0.00 | 0.00 | 37 | 1019.6 |
| 20260904160004 | 68 | 219 | 2.0 | 8.0 | 0.00 | 0.00 | 0.00 | 35 | 1019.7 |
| 20260904155718 | 68 | 223 | 2.0 | 8.0 | 0.00 | 0.00 | 0.00 | 37 | 1020.0 |
| 20260904155703 | 68 | 229 | 2.0 | 8.0 | 0.00 | 0.00 | 0.00 | 37 | 1020.0 |
| 20260904155603 | 67 | 235 | 2.0 | 8.0 | 0.00 | 0.00 | 0.00 | 37 | 1020.0 |
| 20260904155403 | 67 | 228 | 2.0 | 11.0 | 0.00 | 0.00 | 0.00 | 37 | 1020.0 |
| 20260904155306 | 67 | 229 | 4.0 | 11.0 | 0.00 | 0.00 | 0.00 | 36 | 1019.9 |
| 20260904155203 | 68 | 208 | 4.0 | 11.0 | 0.00 | 0.00 | 0.00 | 36 | 1020.1 |
| 20260904155103 | 68 | 222 | 5.0 | 11.0 | 0.00 | 0.00 | 0.00 | 35 | 1020.2 |
| 20260904155003 | 70 | 172 | 2.0 | 6.0 | 0.00 | 0.00 | 0.00 | 36 | 1019.9 |
| 20260904154903 | 71 | 132 | 1.0 | 6.0 | 0.00 | 0.00 | 0.00 | 36 | 1020.2 |
| 20260904154803 | 71 | 96 | 0.0 | 6.0 | 0.00 | 0.00 | 0.00 | 37 | 1020.0 |
| 20260904154703 | 69 | 91 | 2.0 | 6.0 | 0.00 | 0.00 | 0.00 | 38 | 1020.4 |
| 20260904154603 | 68 | 125 | 2.0 | 6.0 | 0.00 | 0.00 | 0.00 | 37 | 1020.2 |
| 20260904154503 | 69 | 156 | 2.0 | 4.0 | 0.00 | 0.00 | 0.00 | 37 | 1020.0 |
| 20260904154403 | 69 | 191 | 1.0 | 6.0 | 0.00 | 0.00 | 0.00 | 37 | 1020.2 |
| 20260904154303 | 68 | 209 | 1.0 | 6.0 | 0.00 | 0.00 | 0.00 | 37 | 1020.2 |
| 20260904154217 | 68 | 212 | 1.0 | 6.0 | 0.00 | 0.00 | 0.00 | 37 | 1020.5 |
| 20260904154203 | 68 | 217 | 1.0 | 6.0 | 0.00 | 0.00 | 0.00 | 37 | 1020.5 |
| 20260904154103 | 67 | 220 | 1.0 | 6.0 | 0.00 | 0.00 | 0.00 | 37 | 1020.5 |
| 20260904153903 | 67 | 241 | 2.0 | 6.0 | 0.00 | 0.00 | 0.00 | 38 | 1020.3 |
| 20260904153803 | 66 | 248 | 3.0 | 6.0 | 0.00 | 0.00 | 0.00 | 38 | 1020.4 |
| 20260904153703 | 66 | 248 | 4.0 | 6.0 | 0.00 | 0.00 | 0.00 | 38 | 1020.5 |
| 20260904153603 | 67 | 261 | 2.0 | 4.0 | 0.00 | 0.00 | 0.00 | 38 | 1020.5 |
| 20260904153503 | 67 | 263 | 1.0 | 4.0 | 0.00 | 0.00 | 0.00 | 38 | 1020.4 |
| 20260904153403 | 68 | 253 | 1.0 | 4.0 | 0.00 | 0.00 | 0.00 | 38 | 1020.5 |
| 20260904153303 | 67 | 237 | 1.0 | 4.0 | 0.00 | 0.00 | 0.00 | 39 | 1020.3 |
| 20260904153203 | 67 | 231 | 2.0 | 7.0 | 0.00 | 0.00 | 0.00 | 39 | 1020.5 |
| 20260904153103 | 67 | 228 | 2.0 | 7.0 | 0.00 | 0.00 | 0.00 | 39 | 1020.6 |
| 20260904153003 | 67 | 222 | 1.0 | 7.0 | 0.00 | 0.00 | 0.00 | 38 | 1020.5 |
| 20260904152904 | 66 | 219 | 2.0 | 7.0 | 0.00 | 0.00 | 0.00 | 39 | 1020.3 |
| 20260904152803 | 66 | 228 | 2.0 | 7.0 | 0.00 | 0.00 | 0.00 | 39 | 1020.4 |
| 20260904152703 | 65 | 232 | 5.0 | 7.0 | 0.00 | 0.00 | 0.00 | 39 | 1020.4 |
| 20260904152603 | 66 | 234 | 3.0 | 6.0 | 0.00 | 0.00 | 0.00 | 38 | 1020.6 |
| 20260904152517 | 66 | 236 | 1.0 | 6.0 | 0.00 | 0.00 | 0.00 | 38 | 1020.4 |
| 20260904152503 | 66 | 235 | 1.0 | 6.0 | 0.00 | 0.00 | 0.00 | 38 | 1020.4 |
| 20260904152403 | 65 | 238 | 2.0 | 6.0 | 0.00 | 0.00 | 0.00 | 39 | 1020.5 |
| 20260904152203 | 67 | 244 | 4.0 | 7.0 | 0.00 | 0.00 | 0.00 | 38 | 1020.6 |
| 20260904152103 | 67 | 243 | 2.0 | 7.0 | 0.00 | 0.00 | 0.00 | 40 | 1020.4 |
| 20260904152003 | 66 | 246 | 2.0 | 7.0 | 0.00 | 0.00 | 0.00 | 41 | 1020.6 |
| 20260904151903 | 65 | 246 | 4.0 | 7.0 | 0.00 | 0.00 | 0.00 | 41 | 1020.5 |
| 20260904151803 | 66 | 240 | 2.0 | 4.0 | 0.00 | 0.00 | 0.00 | 41 | 1020.7 |
| 20260904151703 | 66 | 266 | 2.0 | 4.0 | 0.00 | 0.00 | 0.00 | 41 | 1020.7 |
| 20260904151603 | 66 | 276 | 2.0 | 6.0 | 0.00 | 0.00 | 0.00 | 41 | 1020.6 |
| 20260904151517 | 66 | 267 | 1.0 | 6.0 | 0.00 | 0.00 | 0.00 | 41 | 1020.8 |
| 20260904151503 | 65 | 261 | 2.0 | 6.0 | 0.00 | 0.00 | 0.00 | 41 | 1020.6 |
| 20260904151403 | 65 | 255 | 1.0 | 6.0 | 0.00 | 0.00 | 0.00 | 41 | 1020.7 |
| 20260904151203 | 64 | 253 | 3.0 | 6.0 | 0.00 | 0.00 | 0.00 | 42 | 1020.8 |
| 20260904151103 | 64 | 244 | 4.0 | 6.0 | 0.00 | 0.00 | 0.00 | 43 | 1020.7 |
| 20260904151003 | 65 | 255 | 4.0 | 6.0 | 0.00 | 0.00 | 0.00 | 42 | 1020.7 |
| 20260904150918 | 65 | 279 | 2.0 | 4.0 | 0.00 | 0.00 | 0.00 | 42 | 1020.9 |
| 20260904150903 | 65 | 287 | 2.0 | 4.0 | 0.00 | 0.00 | 0.00 | 42 | 1020.9 |
| 20260904150803 | 65 | 297 | 2.0 | 4.0 | 0.00 | 0.00 | 0.00 | 41 | 1020.8 |
| 20260904150718 | 66 | 311 | 2.0 | 6.0 | 0.00 | 0.00 | 0.00 | 41 | 1020.8 |
| 20260904150603 | 65 | 301 | 2.0 | 6.0 | 0.00 | 0.00 | 0.00 | 40 | 1020.7 |
| 20260904150403 | 65 | 275 | 2.0 | 6.0 | 0.00 | 0.00 | 0.00 | 41 | 1020.8 |
| 20260904150303 | 64 | 263 | 4.0 | 6.0 | 0.00 | 0.00 | 0.00 | 41 | 1020.9 |
| 20260904150218 | 65 | 256 | 2.0 | 6.0 | 0.00 | 0.00 | 0.00 | 41 | 1020.7 |
| 20260904150203 | 65 | 257 | 2.0 | 6.0 | 0.00 | 0.00 | 0.00 | 41 | 1020.7 |
| 20260904145903 | 65 | 289 | 4.0 | 4.0 | 0.00 | 0.00 | 0.00 | 43 | 1020.7 |
| 20260904145803 | 65 | 303 | 2.0 | 4.0 | 0.00 | 0.00 | 0.00 | 43 | 1020.8 |
| 20260904145717 | 65 | 299 | 3.0 | 4.0 | 0.00 | 0.00 | 0.00 | 43 | 1020.9 |
| 20260904145703 | 65 | 296 | 3.0 | 4.0 | 0.00 | 0.00 | 0.00 | 43 | 1020.9 |
| 20260904145603 | 65 | 273 | 2.0 | 4.0 | 0.00 | 0.00 | 0.00 | 43 | 1020.8 |
| 20260904145403 | 65 | 221 | 0.0 | 7.0 | 0.00 | 0.00 | 0.00 | 44 | 1021.0 |
| 20260904145305 | 65 | 220 | 2.0 | 7.0 | 0.00 | 0.00 | 0.00 | 45 | 1020.9 |
| 20260904145203 | 64 | 218 | 2.0 | 7.0 | 0.00 | 0.00 | 0.00 | 45 | 1021.2 |
| 20260904145103 | 64 | 226 | 4.0 | 7.0 | 0.00 | 0.00 | 0.00 | 46 | 1020.9 |
| 20260904144903 | 64 | 261 | 4.0 | 7.0 | 0.00 | 0.00 | 0.00 | 47 | 1021.0 |
| 20260904144803 | 64 | 281 | 3.0 | 7.0 | 0.00 | 0.00 | 0.00 | 48 | 1021.1 |
| 20260904144717 | 65 | 295 | 2.0 | 6.0 | 0.00 | 0.00 | 0.00 | 49 | 1021.0 |
| 20260904144703 | 65 | 300 | 2.0 | 6.0 | 0.00 | 0.00 | 0.00 | 48 | 1021.1 |
| 20260904144603 | 65 | 318 | 3.0 | 6.0 | 0.00 | 0.00 | 0.00 | 48 | 1020.9 |
| 20260904144403 | 65 | 322 | 0.0 | 4.0 | 0.00 | 0.00 | 0.00 | 48 | 1021.2 |
| 20260904144303 | 64 | 328 | 2.0 | 6.0 | 0.00 | 0.00 | 0.00 | 50 | 1021.0 |
| 20260904144203 | 63 | 331 | 3.0 | 6.0 | 0.00 | 0.00 | 0.00 | 50 | 1021.2 |
| 20260904144103 | 63 | 331 | 3.0 | 6.0 | 0.00 | 0.00 | 0.00 | 50 | 1021.2 |
| 20260904144003 | 64 | 335 | 2.0 | 6.0 | 0.00 | 0.00 | 0.00 | 49 | 1021.1 |
| 20260904143903 | 63 | 340 | 3.0 | 6.0 | 0.00 | 0.00 | 0.00 | 50 | 1021.1 |
| 20260904143817 | 63 | 341 | 3.0 | 6.0 | 0.00 | 0.00 | 0.00 | 50 | 1021.3 |
| 20260904143803 | 63 | 342 | 3.0 | 6.0 | 0.00 | 0.00 | 0.00 | 50 | 1021.3 |
| 20260904143703 | 63 | 345 | 2.0 | 4.0 | 0.00 | 0.00 | 0.00 | 51 | 1021.2 |
| 20260904143304 | 63 | 246 | 3.0 | 6.0 | 0.00 | 0.00 | 0.00 | 50 | 1021.0 |
| 20260904143203 | 64 | 266 | 1.0 | 6.0 | 0.00 | 0.00 | 0.00 | 49 | 1021.2 |
| 20260904143103 | 64 | 300 | 2.0 | 6.0 | 0.00 | 0.00 | 0.00 | 50 | 1021.1 |
| 20260904143003 | 64 | 315 | 2.0 | 7.0 | 0.00 | 0.00 | 0.00 | 50 | 1021.3 |
| 20260904142903 | 64 | 319 | 1.0 | 7.0 | 0.00 | 0.00 | 0.00 | 51 | 1021.3 |
| 20260904142803 | 62 | 318 | 3.0 | 7.0 | 0.00 | 0.00 | 0.00 | 50 | 1021.1 |
| 20260904142703 | 62 | 300 | 4.0 | 7.0 | 0.00 | 0.00 | 0.00 | 51 | 1021.1 |
| 20260904142603 | 62 | 286 | 4.0 | 7.0 | 0.00 | 0.00 | 0.00 | 51 | 1021.4 |
| 20260904142503 | 62 | 264 | 5.0 | 7.0 | 0.00 | 0.00 | 0.00 | 51 | 1021.1 |
| 20260904142417 | 63 | 249 | 2.0 | 4.0 | 0.00 | 0.00 | 0.00 | 52 | 1021.4 |
| 20260904142403 | 62 | 246 | 2.0 | 4.0 | 0.00 | 0.00 | 0.00 | 53 | 1021.3 |
| 20260904142306 | 62 | 245 | 2.0 | 4.0 | 0.00 | 0.00 | 0.00 | 53 | 1021.1 |
| 20260904142103 | 62 | 270 | 4.0 | 4.0 | 0.00 | 0.00 | 0.00 | 52 | 1021.4 |
| 20260904142004 | 63 | 286 | 1.0 | 4.0 | 0.00 | 0.00 | 0.00 | 50 | 1021.4 |
| 20260904141903 | 63 | 304 | 2.0 | 4.0 | 0.00 | 0.00 | 0.00 | 50 | 1021.4 |
| 20260904141803 | 64 | 309 | 2.0 | 4.0 | 0.00 | 0.00 | 0.00 | 51 | 1021.2 |
| 20260904141703 | 64 | 304 | 0.0 | 4.0 | 0.00 | 0.00 | 0.00 | 51 | 1021.2 |
| 20260904141603 | 63 | 292 | 1.0 | 4.0 | 0.00 | 0.00 | 0.00 | 51 | 1021.4 |
| 20260904141503 | 63 | 285 | 0.0 | 4.0 | 0.00 | 0.00 | 0.00 | 52 | 1021.3 |
| 20260904141403 | 62 | 279 | 1.0 | 4.0 | 0.00 | 0.00 | 0.00 | 52 | 1021.3 |
| 20260904141303 | 62 | 269 | 2.0 | 4.0 | 0.00 | 0.00 | 0.00 | 52 | 1021.2 |
| 20260904141203 | 62 | 259 | 2.0 | 4.0 | 0.00 | 0.00 | 0.00 | 51 | 1021.4 |
| 20260904141103 | 62 | 267 | 3.0 | 4.0 | 0.00 | 0.00 | 0.00 | 51 | 1021.4 |
| 20260904141004 | 63 | 257 | 1.0 | 2.0 | 0.00 | 0.00 | 0.00 | 52 | 1021.2 |
| 20260904140903 | 62 | 268 | 2.0 | 2.0 | 0.00 | 0.00 | 0.00 | 52 | 1021.3 |
| 20260904140803 | 63 | 266 | 1.0 | 2.0 | 0.00 | 0.00 | 0.00 | 51 | 1021.5 |
| 20260904140703 | 64 | 245 | 0.0 | 2.0 | 0.00 | 0.00 | 0.00 | 51 | 1021.4 |
| 20260904140603 | 63 | 233 | 1.0 | 2.0 | 0.00 | 0.00 | 0.00 | 53 | 1021.3 |
| 20260904140503 | 63 | 236 | 1.0 | 2.0 | 0.00 | 0.00 | 0.00 | 54 | 1021.5 |
| 20260904140403 | 62 | 246 | 2.0 | 2.0 | 0.00 | 0.00 | 0.00 | 53 | 1021.4 |
| 20260904140303 | 62 | 253 | 2.0 | 2.0 | 0.00 | 0.00 | 0.00 | 53 | 1021.2 |
| 20260904140203 | 62 | 258 | 1.0 | 4.0 | 0.00 | 0.00 | 0.00 | 53 | 1021.6 |
| 20260904140103 | 63 | 270 | 0.0 | 4.0 | 0.00 | 0.00 | 0.00 | 53 | 1021.3 |
| 20260904140003 | 61 | 271 | 2.0 | 4.0 | 0.00 | 0.00 | 0.00 | 54 | 1021.2 |
| 20260904135904 | 61 | 269 | 2.0 | 4.0 | 0.00 | 0.00 | 0.00 | 54 | 1021.4 |
| 20260904135803 | 62 | 272 | 2.0 | 4.0 | 0.00 | 0.00 | 0.00 | 53 | 1021.4 |
| 20260904135703 | 62 | 286 | 2.0 | 4.0 | 0.00 | 0.00 | 0.00 | 52 | 1021.4 |
| 20260904135603 | 62 | 282 | 1.0 | 4.0 | 0.00 | 0.00 | 0.00 | 54 | 1021.1 |
| 20260904135503 | 62 | 277 | 1.0 | 4.0 | 0.00 | 0.00 | 0.00 | 54 | 1021.3 |
| 20260904135403 | 62 | 276 | 1.0 | 4.0 | 0.00 | 0.00 | 0.00 | 54 | 1021.3 |
| 20260904135306 | 61 | 277 | 0.0 | 4.0 | 0.00 | 0.00 | 0.00 | 54 | 1021.3 |
| 20260904135203 | 61 | 277 | 2.0 | 4.0 | 0.00 | 0.00 | 0.00 | 54 | 1021.3 |
| 20260904135003 | 62 | 281 | 0.0 | 4.0 | 0.00 | 0.00 | 0.00 | 53 | 1021.5 |
| 20260904134903 | 62 | 277 | 0.0 | 4.0 | 0.00 | 0.00 | 0.00 | 54 | 1021.4 |
| 20260904134803 | 61 | 264 | 1.0 | 4.0 | 0.00 | 0.00 | 0.00 | 55 | 1021.5 |
| 20260904134703 | 61 | 258 | 0.0 | 4.0 | 0.00 | 0.00 | 0.00 | 55 | 1021.3 |
| 20260904134603 | 60 | 253 | 1.0 | 4.0 | 0.00 | 0.00 | 0.00 | 56 | 1021.4 |
| 20260904134504 | 60 | 247 | 2.0 | 4.0 | 0.00 | 0.00 | 0.00 | 56 | 1021.5 |
| 20260904134403 | 60 | 231 | 2.0 | 4.0 | 0.00 | 0.00 | 0.00 | 56 | 1021.6 |
| 20260904134304 | 60 | 231 | 2.0 | 2.0 | 0.00 | 0.00 | 0.00 | 55 | 1021.4 |
| 20260904134203 | 61 | 228 | 2.0 | 4.0 | 0.00 | 0.00 | 0.00 | 55 | 1021.6 |
| 20260904134103 | 62 | 232 | 0.0 | 4.0 | 0.00 | 0.00 | 0.00 | 54 | 1021.6 |
| 20260904134003 | 61 | 244 | 0.0 | 4.0 | 0.00 | 0.00 | 0.00 | 57 | 1021.7 |
| 20260904133918 | 60 | 250 | 1.0 | 4.0 | 0.00 | 0.00 | 0.00 | 57 | 1021.5 |
| 20260904133903 | 60 | 253 | 1.0 | 4.0 | 0.00 | 0.00 | 0.00 | 57 | 1021.5 |
| 20260904133818 | 59 | 258 | 0.0 | 4.0 | 0.00 | 0.00 | 0.00 | 57 | 1021.3 |
| 20260904133803 | 59 | 259 | 0.0 | 4.0 | 0.00 | 0.00 | 0.00 | 57 | 1021.3 |
| 20260904133504 | 59 | 283 | 2.0 | 4.0 | 0.00 | 0.00 | 0.00 | 57 | 1021.4 |
| 20260904133403 | 59 | 284 | 2.0 | 4.0 | 0.00 | 0.00 | 0.00 | 57 | 1021.5 |
| 20260904133307 | 59 | 282 | 2.0 | 4.0 | 0.00 | 0.00 | 0.00 | 56 | 1021.6 |
| 20260904133203 | 59 | 261 | 1.0 | 4.0 | 0.00 | 0.00 | 0.00 | 57 | 1021.3 |
| 20260904133103 | 59 | 235 | 2.0 | 4.0 | 0.00 | 0.00 | 0.00 | 57 | 1021.3 |
| 20260904133003 | 59 | 230 | 1.0 | 4.0 | 0.00 | 0.00 | 0.00 | 57 | 1021.4 |
| 20260904132903 | 59 | 228 | 1.0 | 4.0 | 0.00 | 0.00 | 0.00 | 57 | 1021.4 |
| 20260904132603 | 59 | 255 | 1.0 | 4.0 | 0.00 | 0.00 | 0.00 | 57 | 1021.7 |
| 20260904132518 | 59 | 255 | 0.0 | 2.0 | 0.00 | 0.00 | 0.00 | 57 | 1021.4 |
| 20260904132503 | 59 | 254 | 0.0 | 2.0 | 0.00 | 0.00 | 0.00 | 57 | 1021.4 |
| 20260904132403 | 58 | 252 | 1.0 | 2.0 | 0.00 | 0.00 | 0.00 | 57 | 1021.4 |
| 20260904132203 | 58 | 249 | 2.0 | 2.0 | 0.00 | 0.00 | 0.00 | 57 | 1021.3 |
| 20260904132107 | 59 | 245 | 1.0 | 2.0 | 0.00 | 0.00 | 0.00 | 56 | 1021.6 |
| 20260904132003 | 59 | 245 | 0.0 | 2.0 | 0.00 | 0.00 | 0.00 | 58 | 1021.5 |
| 20260904131803 | 58 | 237 | 0.0 | 4.0 | 0.00 | 0.00 | 0.00 | 58 | 1021.4 |
| 20260904131703 | 58 | 238 | 0.0 | 4.0 | 0.00 | 0.00 | 0.00 | 58 | 1021.3 |
| 20260904131603 | 58 | 234 | 0.0 | 4.0 | 0.00 | 0.00 | 0.00 | 59 | 1021.1 |
| 20260904131403 | 57 | 225 | 2.0 | 4.0 | 0.00 | 0.00 | 0.00 | 59 | 1021.1 |
| 20260904131303 | 57 | 219 | 2.0 | 4.0 | 0.00 | 0.00 | 0.00 | 58 | 1021.3 |
| 20260904131203 | 58 | 225 | 1.0 | 4.0 | 0.00 | 0.00 | 0.00 | 57 | 1021.2 |
| 20260904131103 | 58 | 248 | 1.0 | 4.0 | 0.00 | 0.00 | 0.00 | 57 | 1021.4 |
| 20260904131003 | 58 | 254 | 1.0 | 4.0 | 0.00 | 0.00 | 0.00 | 57 | 1021.2 |
| 20260904130904 | 58 | 251 | 0.0 | 4.0 | 0.00 | 0.00 | 0.00 | 58 | 1021.2 |
| 20260904130803 | 57 | 234 | 1.0 | 4.0 | 0.00 | 0.00 | 0.00 | 58 | 1021.3 |
| 20260904130704 | 57 | 208 | 2.0 | 4.0 | 0.00 | 0.00 | 0.00 | 58 | 1021.3 |
| 20260904130603 | 57 | 192 | 2.0 | 2.0 | 0.00 | 0.00 | 0.00 | 58 | 1021.1 |
| 20260904130503 | 57 | 187 | 1.0 | 2.0 | 0.00 | 0.00 | 0.00 | 58 | 1021.2 |
| 20260904130403 | 57 | 194 | 1.0 | 4.0 | 0.00 | 0.00 | 0.00 | 59 | 1021.3 |
| 20260904130303 | 57 | 204 | 1.0 | 4.0 | 0.00 | 0.00 | 0.00 | 59 | 1021.3 |
| 20260904130203 | 56 | 220 | 2.0 | 4.0 | 0.00 | 0.00 | 0.00 | 59 | 1021.5 |
| 20260904130103 | 56 | 225 | 2.0 | 4.0 | 0.00 | 0.00 | 0.00 | 59 | 1021.3 |
| 20260904130004 | 56 | 248 | 2.0 | 4.0 | 0.00 | 0.00 | 0.00 | 59 | 1021.3 |
| 20260904125903 | 56 | 246 | 2.0 | 4.0 | 0.00 | 0.00 | 0.00 | 59 | 1021.3 |
| 20260904125803 | 56 | 250 | 0.0 | 4.0 | 0.00 | 0.00 | 0.00 | 60 | 1021.2 |
| 20260904125703 | 56 | 249 | 1.0 | 4.0 | 0.00 | 0.00 | 0.00 | 60 | 1021.4 |
| 20260904125603 | 56 | 252 | 2.0 | 4.0 | 0.00 | 0.00 | 0.00 | 61 | 1021.4 |
| 20260904125403 | 55 | 246 | 3.0 | 4.0 | 0.00 | 0.00 | 0.00 | 60 | 1021.2 |
| 20260904125305 | 55 | 254 | 1.0 | 4.0 | 0.00 | 0.00 | 0.00 | 61 | 1021.3 |
| 20260904125218 | 55 | 252 | 2.0 | 4.0 | 0.00 | 0.00 | 0.00 | 60 | 1021.2 |
| 20260904125203 | 55 | 249 | 1.0 | 4.0 | 0.00 | 0.00 | 0.00 | 61 | 1021.3 |
| 20260904125103 | 55 | 242 | 2.0 | 4.0 | 0.00 | 0.00 | 0.00 | 61 | 1021.4 |
| 20260904124904 | 55 | 231 | 2.0 | 4.0 | 0.00 | 0.00 | 0.00 | 61 | 1021.3 |
| 20260904124818 | 55 | 215 | 2.0 | 4.0 | 0.00 | 0.00 | 0.00 | 61 | 1021.3 |
| 20260904124803 | 54 | 215 | 2.0 | 4.0 | 0.00 | 0.00 | 0.00 | 61 | 1021.3 |
| 20260904124703 | 55 | 221 | 1.0 | 4.0 | 0.00 | 0.00 | 0.00 | 61 | 1021.0 |
| 20260904124503 | 55 | 224 | 2.0 | 2.0 | 0.00 | 0.00 | 0.00 | 60 | 1021.3 |
| 20260904124403 | 55 | 244 | 0.0 | 4.0 | 0.00 | 0.00 | 0.00 | 62 | 1021.3 |
| 20260904124303 | 54 | 250 | 1.0 | 4.0 | 0.00 | 0.00 | 0.00 | 62 | 1021.3 |
| 20260904124217 | 54 | 247 | 2.0 | 4.0 | 0.00 | 0.00 | 0.00 | 62 | 1021.4 |
| 20260904124203 | 54 | 246 | 2.0 | 4.0 | 0.00 | 0.00 | 0.00 | 62 | 1021.4 |
| 20260904124103 | 54 | 245 | 2.0 | 4.0 | 0.00 | 0.00 | 0.00 | 62 | 1021.3 |
| 20260904123903 | 54 | 258 | 2.0 | 4.0 | 0.00 | 0.00 | 0.00 | 62 | 1021.5 |
| 20260904123803 | 54 | 262 | 0.0 | 4.0 | 0.00 | 0.00 | 0.00 | 63 | 1021.2 |
| 20260904123703 | 54 | 259 | 0.0 | 4.0 | 0.00 | 0.00 | 0.00 | 64 | 1021.2 |
| 20260904123503 | 53 | 260 | 2.0 | 4.0 | 0.00 | 0.00 | 0.00 | 64 | 1021.2 |
| 20260904123403 | 53 | 256 | 2.0 | 4.0 | 0.00 | 0.00 | 0.00 | 64 | 1021.2 |
| 20260904123303 | 52 | 252 | 2.0 | 4.0 | 0.00 | 0.00 | 0.00 | 65 | 1021.3 |
| 20260904123203 | 52 | 252 | 2.0 | 4.0 | 0.00 | 0.00 | 0.00 | 65 | 1021.2 |
| 20260904123118 | 52 | 249 | 2.0 | 4.0 | 0.00 | 0.00 | 0.00 | 65 | 1021.1 |
| 20260904123103 | 52 | 247 | 2.0 | 4.0 | 0.00 | 0.00 | 0.00 | 65 | 1021.1 |
| 20260904123003 | 52 | 237 | 2.0 | 4.0 | 0.00 | 0.00 | 0.00 | 65 | 1021.1 |
| 20260904122818 | 52 | 227 | 1.0 | 4.0 | 0.00 | 0.00 | 0.00 | 65 | 1021.2 |
| 20260904122704 | 52 | 216 | 2.0 | 4.0 | 0.00 | 0.00 | 0.00 | 65 | 1021.1 |
| 20260904122503 | 52 | 225 | 1.0 | 2.0 | 0.00 | 0.00 | 0.00 | 66 | 1020.9 |
| 20260904122403 | 51 | 227 | 0.0 | 4.0 | 0.00 | 0.00 | 0.00 | 67 | 1021.0 |
| 20260904122306 | 51 | 235 | 2.0 | 4.0 | 0.00 | 0.00 | 0.00 | 67 | 1021.1 |
| 20260904122203 | 50 | 239 | 2.0 | 4.0 | 0.00 | 0.00 | 0.00 | 67 | 1021.0 |
| 20260904122107 | 50 | 237 | 2.0 | 4.0 | 0.00 | 0.00 | 0.00 | 67 | 1021.0 |
| 20260904122003 | 51 | 243 | 2.0 | 4.0 | 0.00 | 0.00 | 0.00 | 66 | 1020.9 |
| 20260904121903 | 51 | 252 | 2.0 | 2.0 | 0.00 | 0.00 | 0.00 | 67 | 1020.9 |
| 20260904121803 | 51 | 277 | 2.0 | 2.0 | 0.00 | 0.00 | 0.00 | 67 | 1021.0 |
| 20260904121603 | 51 | 297 | 1.0 | 2.0 | 0.00 | 0.00 | 0.00 | 68 | 1021.1 |
| 20260904121503 | 50 | 292 | 0.0 | 2.0 | 0.00 | 0.00 | 0.00 | 68 | 1020.9 |
| 20260904121403 | 50 | 292 | 0.0 | 2.0 | 0.00 | 0.00 | 0.00 | 68 | 1021.3 |
| 20260904121317 | 50 | 292 | 1.0 | 2.0 | 0.00 | 0.00 | 0.00 | 68 | 1021.2 |
| 20260904121203 | 50 | 287 | 2.0 | 4.0 | 0.00 | 0.00 | 0.00 | 68 | 1021.2 |
| 20260904121018 | 50 | 294 | 0.0 | 4.0 | 0.00 | 0.00 | 0.00 | 69 | 1021.0 |
| 20260904121003 | 50 | 296 | 0.0 | 4.0 | 0.00 | 0.00 | 0.00 | 69 | 1021.0 |
| 20260904120903 | 50 | 307 | 1.0 | 4.0 | 0.00 | 0.00 | 0.00 | 69 | 1021.1 |
| 20260904120703 | 49 | 328 | 2.0 | 4.0 | 0.00 | 0.00 | 0.00 | 69 | 1021.2 |
| 20260904120603 | 49 | 326 | 2.0 | 4.0 | 0.00 | 0.00 | 0.00 | 70 | 1021.1 |
| 20260904120504 | 49 | 326 | 0.0 | 4.0 | 0.00 | 0.00 | 0.00 | 70 | 1021.3 |
| 20260904120403 | 49 | 322 | 2.0 | 4.0 | 0.00 | 0.00 | 0.00 | 70 | 1021.2 |
| 20260904120303 | 49 | 310 | 2.0 | 4.0 | 0.00 | 0.00 | 0.00 | 70 | 1021.2 |
| 20260904120203 | 49 | 299 | 2.0 | 4.0 | 0.00 | 0.00 | 0.00 | 70 | 1021.1 |
| 20260904120103 | 49 | 287 | 2.0 | 4.0 | 0.00 | 0.00 | 0.00 | 70 | 1021.0 |
| 20260904120004 | 49 | 277 | 0.0 | 4.0 | 0.00 | 0.00 | 0.00 | 71 | 1021.0 |
| 20260904115903 | 49 | 280 | 1.0 | 4.0 | 0.00 | 0.00 | 0.00 | 71 | 1021.3 |
| 20260904115803 | 48 | 284 | 2.0 | 4.0 | 0.00 | 0.00 | 0.00 | 71 | 1021.2 |
| 20260904115703 | 48 | 287 | 2.0 | 4.0 | 0.00 | 0.00 | 0.00 | 71 | 1021.1 |
| 20260904115603 | 48 | 292 | 2.0 | 4.0 | 0.00 | 0.00 | 0.00 | 71 | 1020.9 |
| 20260904115503 | 48 | 299 | 2.0 | 4.0 | 0.00 | 0.00 | 0.00 | 71 | 1020.9 |
| 20260904115418 | 48 | 300 | 2.0 | 4.0 | 0.00 | 0.00 | 0.00 | 71 | 1021.1 |
| 20260904115404 | 48 | 298 | 2.0 | 4.0 | 0.00 | 0.00 | 0.00 | 71 | 1021.1 |
| 20260904115306 | 48 | 287 | 2.0 | 2.0 | 0.00 | 0.00 | 0.00 | 71 | 1021.0 |
| 20260904115103 | 48 | 292 | 0.0 | 2.0 | 0.00 | 0.00 | 0.00 | 71 | 1021.0 |
| 20260904115004 | 48 | 292 | 1.0 | 2.0 | 0.00 | 0.00 | 0.00 | 71 | 1021.0 |
| 20260904114903 | 48 | 292 | 0.0 | 2.0 | 0.00 | 0.00 | 0.00 | 71 | 1021.3 |
| 20260904114803 | 48 | 0 | 0.0 | 0.0 | 0.00 | 0.00 | 0.00 | 72 | 1020.9 |
| 20260904114503 | 48 | 281 | 0.0 | 2.0 | 0.00 | 0.00 | 0.00 | 71 | 1021.1 |
| 20260904114403 | 48 | 288 | 0.0 | 2.0 | 0.00 | 0.00 | 0.00 | 71 | 1020.9 |
| 20260904114303 | 47 | 296 | 2.0 | 2.0 | 0.00 | 0.00 | 0.00 | 72 | 1020.9 |
| 20260904114203 | 47 | 286 | 2.0 | 4.0 | 0.00 | 0.00 | 0.00 | 72 | 1020.8 |
| 20260904114103 | 47 | 284 | 2.0 | 4.0 | 0.00 | 0.00 | 0.00 | 72 | 1021.0 |
| 20260904114003 | 47 | 279 | 0.0 | 4.0 | 0.00 | 0.00 | 0.00 | 72 | 1021.0 |
| 20260904113903 | 47 | 274 | 2.0 | 4.0 | 0.00 | 0.00 | 0.00 | 72 | 1021.0 |
| 20260904113803 | 47 | 267 | 2.0 | 4.0 | 0.00 | 0.00 | 0.00 | 72 | 1021.0 |
| 20260904113703 | 47 | 268 | 1.0 | 4.0 | 0.00 | 0.00 | 0.00 | 72 | 1020.8 |
| 20260904113603 | 47 | 279 | 2.0 | 4.0 | 0.00 | 0.00 | 0.00 | 72 | 1021.0 |
| 20260904113503 | 47 | 288 | 2.0 | 4.0 | 0.00 | 0.00 | 0.00 | 72 | 1021.1 |
| 20260904113403 | 47 | 303 | 1.0 | 4.0 | 0.00 | 0.00 | 0.00 | 71 | 1021.0 |
| 20260904113318 | 47 | 304 | 0.0 | 4.0 | 0.00 | 0.00 | 0.00 | 71 | 1021.2 |
| 20260904113303 | 47 | 303 | 0.0 | 4.0 | 0.00 | 0.00 | 0.00 | 71 | 1021.2 |
| 20260904113203 | 47 | 306 | 2.0 | 4.0 | 0.00 | 0.00 | 0.00 | 71 | 1021.1 |
| 20260904113018 | 48 | 288 | 2.0 | 4.0 | 0.00 | 0.00 | 0.00 | 71 | 1020.8 |
| 20260904113003 | 48 | 281 | 2.0 | 4.0 | 0.00 | 0.00 | 0.00 | 71 | 1020.8 |
| 20260904112903 | 47 | 259 | 1.0 | 4.0 | 0.00 | 0.00 | 0.00 | 71 | 1020.9 |
| 20260904112703 | 47 | 247 | 2.0 | 4.0 | 0.00 | 0.00 | 0.00 | 71 | 1021.3 |
| 20260904112318 | 47 | 275 | 1.0 | 4.0 | 0.00 | 0.00 | 0.00 | 71 | 1021.0 |
| 20260904112306 | 47 | 275 | 2.0 | 4.0 | 0.00 | 0.00 | 0.00 | 71 | 1020.9 |
| 20260904112203 | 47 | 276 | 0.0 | 4.0 | 0.00 | 0.00 | 0.00 | 71 | 1020.9 |
| 20260904112003 | 47 | 274 | 0.0 | 2.0 | 0.00 | 0.00 | 0.00 | 70 | 1020.8 |
| 20260904111916 | 47 | 276 | 0.0 | 2.0 | 0.00 | 0.00 | 0.00 | 70 | 1020.8 |
| 20260904111903 | 48 | 277 | 1.0 | 2.0 | 0.00 | 0.00 | 0.00 | 70 | 1020.9 |
| 20260904111803 | 48 | 282 | 1.0 | 2.0 | 0.00 | 0.00 | 0.00 | 70 | 1021.0 |
| 20260904111718 | 48 | 288 | 1.0 | 2.0 | 0.00 | 0.00 | 0.00 | 70 | 1020.9 |
| 20260904111618 | 48 | 282 | 0.0 | 2.0 | 0.00 | 0.00 | 0.00 | 70 | 1021.1 |
| 20260904111603 | 48 | 281 | 0.0 | 2.0 | 0.00 | 0.00 | 0.00 | 70 | 1021.0 |
| 20260904111303 | 48 | 270 | 0.0 | 2.0 | 0.00 | 0.00 | 0.00 | 69 | 1021.2 |
| 20260904111203 | 48 | 270 | 1.0 | 2.0 | 0.00 | 0.00 | 0.00 | 69 | 1020.8 |
| 20260904111117 | 48 | 270 | 1.0 | 2.0 | 0.00 | 0.00 | 0.00 | 69 | 1020.8 |
| 20260904111003 | 48 | 270 | 0.0 | 2.0 | 0.00 | 0.00 | 0.00 | 68 | 1021.0 |
| 20260904110923 | 49 | 270 | 1.0 | 2.0 | 0.00 | 0.00 | 0.00 | 68 | 1020.8 |
| 20260904110817 | 49 | 239 | 1.0 | 2.0 | 0.00 | 0.00 | 0.00 | 68 | 1020.8 |
| 20260904110803 | 49 | 225 | 0.0 | 2.0 | 0.00 | 0.00 | 0.00 | 68 | 1021.1 |
| 20260904110718 | 49 | 225 | 0.0 | 2.0 | 0.00 | 0.00 | 0.00 | 68 | 1021.1 |
| 20260904110618 | 49 | 225 | 0.0 | 2.0 | 0.00 | 0.00 | 0.00 | 67 | 1020.8 |
| 20260904110418 | 48 | 225 | 0.0 | 2.0 | 0.00 | 0.00 | 0.00 | 67 | 1020.6 |
| 20260904110303 | 48 | 225 | 0.0 | 2.0 | 0.00 | 0.00 | 0.00 | 67 | 1020.5 |
| 20260904110117 | 48 | 238 | 0.0 | 2.0 | 0.00 | 0.00 | 0.00 | 67 | 1020.5 |
| 20260904110004 | 48 | 235 | 0.0 | 2.0 | 0.00 | 0.00 | 0.00 | 67 | 1020.6 |
| 20260904105803 | 48 | 236 | 1.0 | 2.0 | 0.00 | 0.00 | 0.00 | 68 | 1020.5 |
| 20260904105703 | 48 | 233 | 0.0 | 2.0 | 0.00 | 0.00 | 0.00 | 68 | 1020.5 |
| 20260904105603 | 48 | 225 | 1.0 | 2.0 | 0.00 | 0.00 | 0.00 | 68 | 1020.5 |
| 20260904105503 | 48 | 225 | 0.0 | 2.0 | 0.00 | 0.00 | 0.00 | 68 | 1020.7 |
| 20260904105403 | 48 | 225 | 0.0 | 2.0 | 0.00 | 0.00 | 0.00 | 68 | 1020.6 |
| 20260904105305 | 48 | 225 | 0.0 | 2.0 | 0.00 | 0.00 | 0.00 | 68 | 1020.5 |
| 20260904105203 | 48 | 0 | 0.0 | 0.0 | 0.00 | 0.00 | 0.00 | 68 | 1020.7 |
| 20260904105003 | 48 | 0 | 0.0 | 0.0 | 0.00 | 0.00 | 0.00 | 68 | 1020.6 |
| 20260904104903 | 47 | 0 | 0.0 | 0.0 | 0.00 | 0.00 | 0.00 | 68 | 1020.4 |
| 20260904104403 | 47 | 0 | 0.0 | 0.0 | 0.00 | 0.00 | 0.00 | 69 | 1020.4 |
| 20260904104303 | 47 | 0 | 0.0 | 0.0 | 0.00 | 0.00 | 0.00 | 69 | 1020.5 |
| 20260904104203 | 47 | 0 | 0.0 | 0.0 | 0.00 | 0.00 | 0.00 | 69 | 1020.5 |
| 20260904104103 | 47 | 0 | 0.0 | 0.0 | 0.00 | 0.00 | 0.00 | 69 | 1020.4 |
| 20260904104005 | 47 | 0 | 0.0 | 0.0 | 0.00 | 0.00 | 0.00 | 69 | 1020.1 |
| 20260904103917 | 47 | 0 | 0.0 | 0.0 | 0.00 | 0.00 | 0.00 | 69 | 1020.4 |
| 20260904103903 | 47 | 0 | 0.0 | 0.0 | 0.00 | 0.00 | 0.00 | 70 | 1020.3 |
| 20260904103603 | 47 | 0 | 0.0 | 0.0 | 0.00 | 0.00 | 0.00 | 70 | 1020.2 |
| 20260904103517 | 47 | 0 | 0.0 | 0.0 | 0.00 | 0.00 | 0.00 | 70 | 1020.3 |
| 20260904103504 | 47 | 0 | 0.0 | 0.0 | 0.00 | 0.00 | 0.00 | 70 | 1020.2 |
| 20260904103403 | 47 | 0 | 0.0 | 0.0 | 0.00 | 0.00 | 0.00 | 70 | 1020.3 |
| 20260904103117 | 47 | 0 | 0.0 | 0.0 | 0.00 | 0.00 | 0.00 | 70 | 1020.2 |
| 20260904103103 | 47 | 0 | 0.0 | 0.0 | 0.00 | 0.00 | 0.00 | 71 | 1020.1 |
| 20260904103003 | 47 | 0 | 0.0 | 0.0 | 0.00 | 0.00 | 0.00 | 71 | 1020.1 |
| 20260904102803 | 47 | 0 | 0.0 | 0.0 | 0.00 | 0.00 | 0.00 | 71 | 1020.3 |
| 20260904102703 | 47 | 0 | 0.0 | 0.0 | 0.00 | 0.00 | 0.00 | 72 | 1020.2 |
| 20260904102603 | 46 | 0 | 0.0 | 0.0 | 0.00 | 0.00 | 0.00 | 72 | 1020.0 |
| 20260904102503 | 46 | 0 | 0.0 | 0.0 | 0.00 | 0.00 | 0.00 | 72 | 1020.0 |
| 20260904102403 | 46 | 0 | 0.0 | 0.0 | 0.00 | 0.00 | 0.00 | 72 | 1020.2 |
| 20260904102306 | 46 | 0 | 0.0 | 0.0 | 0.00 | 0.00 | 0.00 | 72 | 1020.2 |
| 20260904102203 | 47 | 0 | 0.0 | 0.0 | 0.00 | 0.00 | 0.00 | 72 | 1020.2 |
| 20260904102103 | 47 | 0 | 0.0 | 0.0 | 0.00 | 0.00 | 0.00 | 72 | 1019.9 |
| 20260904101803 | 47 | 0 | 0.0 | 0.0 | 0.00 | 0.00 | 0.00 | 72 | 1020.0 |
| 20260904101703 | 47 | 0 | 0.0 | 0.0 | 0.00 | 0.00 | 0.00 | 72 | 1020.2 |
| 20260904101603 | 47 | 0 | 0.0 | 0.0 | 0.00 | 0.00 | 0.00 | 72 | 1020.1 |
| 20260904101303 | 47 | 0 | 0.0 | 0.0 | 0.00 | 0.00 | 0.00 | 72 | 1020.0 |
| 20260904101203 | 47 | 0 | 0.0 | 0.0 | 0.00 | 0.00 | 0.00 | 72 | 1020.0 |
| 20260904101103 | 47 | 0 | 0.0 | 0.0 | 0.00 | 0.00 | 0.00 | 72 | 1020.1 |
| 20260904101003 | 47 | 0 | 0.0 | 0.0 | 0.00 | 0.00 | 0.00 | 72 | 1020.0 |
| 20260904100903 | 47 | 0 | 0.0 | 0.0 | 0.00 | 0.00 | 0.00 | 72 | 1019.9 |
| 20260904100803 | 47 | 0 | 0.0 | 0.0 | 0.00 | 0.00 | 0.00 | 72 | 1019.8 |
| 20260904100703 | 47 | 0 | 0.0 | 0.0 | 0.00 | 0.00 | 0.00 | 71 | 1020.3 |
| 20260904100603 | 47 | 0 | 0.0 | 0.0 | 0.00 | 0.00 | 0.00 | 71 | 1020.1 |
| 20260904100503 | 47 | 0 | 0.0 | 0.0 | 0.00 | 0.00 | 0.00 | 71 | 1020.1 |
| 20260904100303 | 47 | 0 | 0.0 | 0.0 | 0.00 | 0.00 | 0.00 | 72 | 1020.0 |
| 20260904100203 | 47 | 0 | 0.0 | 0.0 | 0.00 | 0.00 | 0.00 | 72 | 1019.9 |
| 20260904100105 | 47 | 0 | 0.0 | 0.0 | 0.00 | 0.00 | 0.00 | 72 | 1020.2 |
| 20260904100004 | 47 | 0 | 0.0 | 0.0 | 0.00 | 0.00 | 0.00 | 72 | 1019.9 |
| 20260904095903 | 47 | 0 | 0.0 | 0.0 | 0.00 | 0.00 | 0.00 | 72 | 1020.2 |
| 20260904095803 | 46 | 0 | 0.0 | 0.0 | 0.00 | 0.00 | 0.00 | 72 | 1020.0 |
| 20260904095703 | 46 | 0 | 0.0 | 0.0 | 0.00 | 0.00 | 0.00 | 72 | 1019.9 |
| 20260904095603 | 46 | 0 | 0.0 | 0.0 | 0.00 | 0.00 | 0.00 | 72 | 1019.9 |
| 20260904095503 | 46 | 0 | 0.0 | 0.0 | 0.00 | 0.00 | 0.00 | 72 | 1020.0 |
| 20260904095403 | 46 | 0 | 0.0 | 0.0 | 0.00 | 0.00 | 0.00 | 72 | 1019.9 |
| 20260904095306 | 47 | 0 | 0.0 | 0.0 | 0.00 | 0.00 | 0.00 | 72 | 1019.9 |
| 20260904095203 | 46 | 0 | 0.0 | 0.0 | 0.00 | 0.00 | 0.00 | 72 | 1019.8 |
| 20260904095103 | 46 | 0 | 0.0 | 0.0 | 0.00 | 0.00 | 0.00 | 72 | 1020.1 |
| 20260904095003 | 46 | 0 | 0.0 | 0.0 | 0.00 | 0.00 | 0.00 | 72 | 1019.9 |
| 20260904094903 | 46 | 0 | 0.0 | 0.0 | 0.00 | 0.00 | 0.00 | 72 | 1019.9 |
| 20260904094803 | 46 | 0 | 0.0 | 0.0 | 0.00 | 0.00 | 0.00 | 72 | 1019.8 |
| 20260904094703 | 46 | 0 | 0.0 | 0.0 | 0.00 | 0.00 | 0.00 | 72 | 1020.1 |
| 20260904094603 | 46 | 0 | 0.0 | 0.0 | 0.00 | 0.00 | 0.00 | 72 | 1020.0 |
| 20260904094503 | 46 | 0 | 0.0 | 0.0 | 0.00 | 0.00 | 0.00 | 72 | 1019.8 |
| 20260904094303 | 46 | 0 | 0.0 | 0.0 | 0.00 | 0.00 | 0.00 | 72 | 1019.9 |
| 20260904094203 | 46 | 0 | 0.0 | 0.0 | 0.00 | 0.00 | 0.00 | 72 | 1020.1 |
| 20260904094103 | 46 | 0 | 0.0 | 0.0 | 0.00 | 0.00 | 0.00 | 72 | 1020.0 |
| 20260904093903 | 46 | 0 | 0.0 | 0.0 | 0.00 | 0.00 | 0.00 | 71 | 1019.9 |
| 20260904093803 | 46 | 0 | 0.0 | 0.0 | 0.00 | 0.00 | 0.00 | 71 | 1019.8 |
| 20260904093703 | 46 | 0 | 0.0 | 0.0 | 0.00 | 0.00 | 0.00 | 71 | 1020.1 |
| 20260904093604 | 46 | 0 | 0.0 | 0.0 | 0.00 | 0.00 | 0.00 | 71 | 1019.9 |
| 20260904093503 | 46 | 0 | 0.0 | 0.0 | 0.00 | 0.00 | 0.00 | 71 | 1019.7 |
| 20260904093403 | 46 | 0 | 0.0 | 0.0 | 0.00 | 0.00 | 0.00 | 71 | 1019.8 |
| 20260904093303 | 46 | 0 | 0.0 | 0.0 | 0.00 | 0.00 | 0.00 | 71 | 1019.9 |
| 20260904093203 | 46 | 0 | 0.0 | 0.0 | 0.00 | 0.00 | 0.00 | 71 | 1019.7 |
| 20260904093117 | 46 | 0 | 0.0 | 0.0 | 0.00 | 0.00 | 0.00 | 71 | 1020.1 |
| 20260904093103 | 46 | 0 | 0.0 | 0.0 | 0.00 | 0.00 | 0.00 | 71 | 1019.8 |
| 20260904093003 | 46 | 0 | 0.0 | 0.0 | 0.00 | 0.00 | 0.00 | 71 | 1019.8 |
| 20260904092918 | 46 | 0 | 0.0 | 0.0 | 0.00 | 0.00 | 0.00 | 71 | 1020.0 |
| 20260904092603 | 47 | 0 | 0.0 | 0.0 | 0.00 | 0.00 | 0.00 | 71 | 1019.8 |
| 20260904092503 | 47 | 0 | 0.0 | 0.0 | 0.00 | 0.00 | 0.00 | 71 | 1019.6 |
| 20260904092403 | 46 | 0 | 0.0 | 0.0 | 0.00 | 0.00 | 0.00 | 70 | 1020.0 |
| 20260904092306 | 47 | 0 | 0.0 | 0.0 | 0.00 | 0.00 | 0.00 | 71 | 1019.7 |
| 20260904092103 | 47 | 0 | 0.0 | 0.0 | 0.00 | 0.00 | 0.00 | 71 | 1019.8 |
| 20260904092003 | 47 | 0 | 0.0 | 0.0 | 0.00 | 0.00 | 0.00 | 71 | 1019.8 |
| 20260904091903 | 46 | 0 | 0.0 | 0.0 | 0.00 | 0.00 | 0.00 | 71 | 1019.7 |
| 20260904091703 | 46 | 0 | 0.0 | 0.0 | 0.00 | 0.00 | 0.00 | 71 | 1019.7 |
| 20260904091603 | 46 | 0 | 0.0 | 0.0 | 0.00 | 0.00 | 0.00 | 71 | 1019.8 |
| 20260904091503 | 46 | 0 | 0.0 | 0.0 | 0.00 | 0.00 | 0.00 | 71 | 1019.8 |
| 20260904091403 | 46 | 0 | 0.0 | 0.0 | 0.00 | 0.00 | 0.00 | 71 | 1019.7 |
| 20260904091303 | 46 | 0 | 0.0 | 0.0 | 0.00 | 0.00 | 0.00 | 71 | 1019.8 |
| 20260904091203 | 46 | 247 | 0.0 | 2.0 | 0.00 | 0.00 | 0.00 | 71 | 1019.7 |
| 20260904091109 | 46 | 247 | 0.0 | 2.0 | 0.00 | 0.00 | 0.00 | 71 | 1019.6 |
| 20260904091003 | 46 | 247 | 0.0 | 2.0 | 0.00 | 0.00 | 0.00 | 71 | 1019.8 |
| 20260904090903 | 47 | 247 | 0.0 | 2.0 | 0.00 | 0.00 | 0.00 | 71 | 1019.9 |
| 20260904090803 | 47 | 247 | 0.0 | 2.0 | 0.00 | 0.00 | 0.00 | 71 | 1019.5 |
| 20260904090703 | 47 | 247 | 0.0 | 2.0 | 0.00 | 0.00 | 0.00 | 71 | 1019.6 |
| 20260904090618 | 47 | 247 | 0.0 | 2.0 | 0.00 | 0.00 | 0.00 | 71 | 1019.6 |
| 20260904090503 | 47 | 247 | 0.0 | 2.0 | 0.00 | 0.00 | 0.00 | 71 | 1019.5 |
| 20260904090303 | 47 | 247 | 0.0 | 2.0 | 0.00 | 0.00 | 0.00 | 70 | 1019.4 |
| 20260904090203 | 47 | 247 | 0.0 | 2.0 | 0.00 | 0.00 | 0.00 | 70 | 1019.6 |
| 20260904090103 | 47 | 0 | 0.0 | 0.0 | 0.00 | 0.00 | 0.00 | 70 | 1019.5 |
| 20260904090004 | 47 | 0 | 0.0 | 0.0 | 0.00 | 0.00 | 0.00 | 70 | 1019.5 |
| 20260904085903 | 47 | 0 | 0.0 | 0.0 | 0.00 | 0.00 | 0.00 | 70 | 1019.5 |
| 20260904085803 | 47 | 0 | 0.0 | 0.0 | 0.00 | 0.00 | 0.00 | 70 | 1019.8 |
| 20260904085703 | 47 | 0 | 0.0 | 0.0 | 0.00 | 0.00 | 0.00 | 70 | 1019.6 |
| 20260904085603 | 47 | 0 | 0.0 | 0.0 | 0.00 | 0.00 | 0.00 | 70 | 1019.6 |
| 20260904085503 | 47 | 0 | 0.0 | 0.0 | 0.00 | 0.00 | 0.00 | 70 | 1019.7 |
| 20260904085403 | 47 | 0 | 0.0 | 0.0 | 0.00 | 0.00 | 0.00 | 70 | 1019.6 |
| 20260904085305 | 47 | 0 | 0.0 | 0.0 | 0.00 | 0.00 | 0.00 | 70 | 1019.5 |
| 20260904085203 | 47 | 0 | 0.0 | 0.0 | 0.00 | 0.00 | 0.00 | 70 | 1019.5 |
| 20260904085103 | 47 | 0 | 0.0 | 0.0 | 0.00 | 0.00 | 0.00 | 70 | 1019.4 |
| 20260904085003 | 47 | 0 | 0.0 | 0.0 | 0.00 | 0.00 | 0.00 | 70 | 1019.6 |
| 20260904084903 | 47 | 0 | 0.0 | 0.0 | 0.00 | 0.00 | 0.00 | 70 | 1019.4 |
| 20260904084803 | 47 | 0 | 0.0 | 0.0 | 0.00 | 0.00 | 0.00 | 70 | 1019.4 |
| 20260904084703 | 47 | 0 | 0.0 | 0.0 | 0.00 | 0.00 | 0.00 | 70 | 1019.6 |
| 20260904084503 | 47 | 0 | 0.0 | 0.0 | 0.00 | 0.00 | 0.00 | 70 | 1019.5 |
| 20260904084403 | 47 | 0 | 0.0 | 0.0 | 0.00 | 0.00 | 0.00 | 70 | 1019.5 |
| 20260904084303 | 47 | 0 | 0.0 | 0.0 | 0.00 | 0.00 | 0.00 | 70 | 1019.6 |
| 20260904084203 | 47 | 0 | 0.0 | 0.0 | 0.00 | 0.00 | 0.00 | 70 | 1019.5 |
| 20260904084103 | 47 | 0 | 0.0 | 0.0 | 0.00 | 0.00 | 0.00 | 70 | 1019.4 |
| 20260904083903 | 47 | 0 | 0.0 | 0.0 | 0.00 | 0.00 | 0.00 | 69 | 1019.4 |
| 20260904083804 | 47 | 0 | 0.0 | 0.0 | 0.00 | 0.00 | 0.00 | 69 | 1019.4 |
| 20260904083703 | 47 | 0 | 0.0 | 0.0 | 0.00 | 0.00 | 0.00 | 69 | 1019.4 |
| 20260904083503 | 47 | 0 | 0.0 | 0.0 | 0.00 | 0.00 | 0.00 | 69 | 1019.5 |
| 20260904083403 | 47 | 0 | 0.0 | 0.0 | 0.00 | 0.00 | 0.00 | 69 | 1019.5 |
| 20260904083303 | 47 | 225 | 0.0 | 2.0 | 0.00 | 0.00 | 0.00 | 69 | 1019.5 |
| 20260904083203 | 47 | 239 | 0.0 | 4.0 | 0.00 | 0.00 | 0.00 | 69 | 1019.7 |
| 20260904083103 | 47 | 235 | 0.0 | 4.0 | 0.00 | 0.00 | 0.00 | 69 | 1019.5 |
| 20260904083003 | 47 | 238 | 0.0 | 4.0 | 0.00 | 0.00 | 0.00 | 69 | 1019.6 |
| 20260904082903 | 47 | 237 | 0.0 | 4.0 | 0.00 | 0.00 | 0.00 | 69 | 1019.4 |
| 20260904082816 | 47 | 237 | 1.0 | 4.0 | 0.00 | 0.00 | 0.00 | 69 | 1019.4 |
| 20260904082803 | 47 | 238 | 1.0 | 4.0 | 0.00 | 0.00 | 0.00 | 69 | 1019.4 |
| 20260904082703 | 47 | 235 | 0.0 | 4.0 | 0.00 | 0.00 | 0.00 | 69 | 1019.6 |
| 20260904082503 | 47 | 219 | 2.0 | 4.0 | 0.00 | 0.00 | 0.00 | 69 | 1019.6 |
| 20260904082417 | 47 | 216 | 1.0 | 4.0 | 0.00 | 0.00 | 0.00 | 69 | 1019.6 |
| 20260904082413 | 47 | 217 | 1.0 | 4.0 | 0.00 | 0.00 | 0.00 | 69 | 1019.6 |
| 20260904082305 | 47 | 222 | 0.0 | 4.0 | 0.00 | 0.00 | 0.00 | 69 | 1019.4 |
| 20260904082103 | 47 | 226 | 1.0 | 4.0 | 0.00 | 0.00 | 0.00 | 69 | 1019.3 |
| 20260904082017 | 47 | 231 | 2.0 | 4.0 | 0.00 | 0.00 | 0.00 | 69 | 1019.4 |
| 20260904082003 | 47 | 233 | 2.0 | 4.0 | 0.00 | 0.00 | 0.00 | 69 | 1019.4 |
| 20260904081903 | 47 | 235 | 1.0 | 4.0 | 0.00 | 0.00 | 0.00 | 69 | 1019.4 |
| 20260904081703 | 47 | 236 | 1.0 | 4.0 | 0.00 | 0.00 | 0.00 | 69 | 1019.5 |
| 20260904081603 | 47 | 237 | 0.0 | 4.0 | 0.00 | 0.00 | 0.00 | 69 | 1019.5 |
| 20260904081518 | 47 | 237 | 1.0 | 4.0 | 0.00 | 0.00 | 0.00 | 69 | 1019.4 |
| 20260904081503 | 47 | 236 | 0.0 | 4.0 | 0.00 | 0.00 | 0.00 | 69 | 1019.5 |
| 20260904081403 | 47 | 237 | 2.0 | 4.0 | 0.00 | 0.00 | 0.00 | 69 | 1019.5 |
| 20260904081203 | 47 | 240 | 1.0 | 4.0 | 0.00 | 0.00 | 0.00 | 70 | 1019.5 |
| 20260904081103 | 47 | 238 | 2.0 | 4.0 | 0.00 | 0.00 | 0.00 | 70 | 1019.5 |
| 20260904081003 | 47 | 238 | 2.0 | 4.0 | 0.00 | 0.00 | 0.00 | 70 | 1019.3 |
| 20260904080903 | 47 | 237 | 2.0 | 4.0 | 0.00 | 0.00 | 0.00 | 69 | 1019.5 |
| 20260904080803 | 47 | 239 | 2.0 | 4.0 | 0.00 | 0.00 | 0.00 | 70 | 1019.2 |
| 20260904080717 | 47 | 239 | 2.0 | 4.0 | 0.00 | 0.00 | 0.00 | 70 | 1019.3 |
| 20260904080703 | 47 | 236 | 2.0 | 2.0 | 0.00 | 0.00 | 0.00 | 70 | 1019.3 |
| 20260904080603 | 47 | 247 | 1.0 | 2.0 | 0.00 | 0.00 | 0.00 | 70 | 1019.5 |
| 20260904080403 | 47 | 225 | 0.0 | 4.0 | 0.00 | 0.00 | 0.00 | 70 | 1019.4 |
| 20260904080303 | 47 | 228 | 0.0 | 4.0 | 0.00 | 0.00 | 0.00 | 70 | 1019.3 |
| 20260904080203 | 47 | 234 | 0.0 | 4.0 | 0.00 | 0.00 | 0.00 | 70 | 1019.2 |
| 20260904080003 | 47 | 238 | 1.0 | 4.0 | 0.00 | 0.00 | 0.00 | 71 | 1019.3 |
| 20260904075903 | 47 | 236 | 1.0 | 2.0 | 0.00 | 0.00 | 0.00 | 71 | 1019.2 |
| 20260904075703 | 47 | 229 | 1.0 | 2.0 | 0.00 | 0.00 | 0.00 | 71 | 1019.0 |
| 20260904075603 | 47 | 225 | 0.0 | 2.0 | 0.00 | 0.00 | 0.00 | 71 | 1019.2 |
| 20260904075518 | 47 | 225 | 0.0 | 2.0 | 0.00 | 0.00 | 0.00 | 71 | 1019.3 |
| 20260904075503 | 47 | 225 | 1.0 | 2.0 | 0.00 | 0.00 | 0.00 | 72 | 1019.2 |
| 20260904075403 | 47 | 225 | 0.0 | 2.0 | 0.00 | 0.00 | 0.00 | 72 | 1019.4 |
| 20260904075203 | 47 | 0 | 0.0 | 0.0 | 0.00 | 0.00 | 0.00 | 71 | 1019.1 |
| 20260904075103 | 47 | 225 | 0.0 | 2.0 | 0.00 | 0.00 | 0.00 | 71 | 1019.2 |
| 20260904074903 | 47 | 225 | 0.0 | 2.0 | 0.00 | 0.00 | 0.00 | 71 | 1019.2 |
| 20260904074803 | 47 | 233 | 0.0 | 2.0 | 0.00 | 0.00 | 0.00 | 72 | 1019.3 |
| 20260904074703 | 47 | 227 | 0.0 | 2.0 | 0.00 | 0.00 | 0.00 | 72 | 1019.1 |
| 20260904074603 | 47 | 228 | 1.0 | 2.0 | 0.00 | 0.00 | 0.00 | 73 | 1019.3 |
| 20260904074503 | 47 | 229 | 0.0 | 2.0 | 0.00 | 0.00 | 0.00 | 73 | 1019.0 |
| 20260904074403 | 47 | 229 | 0.0 | 2.0 | 0.00 | 0.00 | 0.00 | 73 | 1019.3 |
| 20260904074303 | 47 | 202 | 0.0 | 2.0 | 0.00 | 0.00 | 0.00 | 74 | 1019.3 |
| 20260904074203 | 47 | 0 | 0.0 | 0.0 | 0.00 | 0.00 | 0.00 | 74 | 1019.2 |
| 20260904074103 | 47 | 0 | 0.0 | 0.0 | 0.00 | 0.00 | 0.00 | 74 | 1019.1 |
| 20260904073903 | 47 | 0 | 0.0 | 0.0 | 0.00 | 0.00 | 0.00 | 75 | 1019.1 |
| 20260904073803 | 47 | 0 | 0.0 | 0.0 | 0.00 | 0.00 | 0.00 | 76 | 1019.4 |
| 20260904073703 | 47 | 0 | 0.0 | 0.0 | 0.00 | 0.00 | 0.00 | 76 | 1019.1 |
| 20260904073617 | 47 | 0 | 0.0 | 0.0 | 0.00 | 0.00 | 0.00 | 76 | 1019.2 |
| 20260904073503 | 46 | 0 | 0.0 | 0.0 | 0.00 | 0.00 | 0.00 | 77 | 1019.1 |
| 20260904073417 | 46 | 0 | 0.0 | 0.0 | 0.00 | 0.00 | 0.00 | 78 | 1019.3 |
| 20260904073303 | 46 | 0 | 0.0 | 0.0 | 0.00 | 0.00 | 0.00 | 78 | 1019.1 |
| 20260904073003 | 46 | 0 | 0.0 | 0.0 | 0.00 | 0.00 | 0.00 | 77 | 1019.2 |
| 20260904072903 | 46 | 0 | 0.0 | 0.0 | 0.00 | 0.00 | 0.00 | 77 | 1019.2 |
| 20260904072803 | 46 | 0 | 0.0 | 0.0 | 0.00 | 0.00 | 0.00 | 77 | 1019.3 |
| 20260904072703 | 46 | 0 | 0.0 | 0.0 | 0.00 | 0.00 | 0.00 | 77 | 1019.2 |
| 20260904072503 | 46 | 0 | 0.0 | 0.0 | 0.00 | 0.00 | 0.00 | 77 | 1019.4 |
| 20260904072403 | 46 | 0 | 0.0 | 0.0 | 0.00 | 0.00 | 0.00 | 77 | 1019.3 |
| 20260904072306 | 46 | 0 | 0.0 | 0.0 | 0.00 | 0.00 | 0.00 | 77 | 1019.4 |
| 20260904072203 | 46 | 0 | 0.0 | 0.0 | 0.00 | 0.00 | 0.00 | 77 | 1019.1 |
| 20260904072103 | 46 | 0 | 0.0 | 0.0 | 0.00 | 0.00 | 0.00 | 77 | 1019.2 |
| 20260904071803 | 46 | 0 | 0.0 | 0.0 | 0.00 | 0.00 | 0.00 | 77 | 1019.1 |
| 20260904071703 | 46 | 0 | 0.0 | 0.0 | 0.00 | 0.00 | 0.00 | 77 | 1019.1 |
| 20260904071603 | 46 | 0 | 0.0 | 0.0 | 0.00 | 0.00 | 0.00 | 77 | 1019.3 |
| 20260904071503 | 46 | 0 | 0.0 | 0.0 | 0.00 | 0.00 | 0.00 | 77 | 1019.1 |
| 20260904071403 | 46 | 0 | 0.0 | 0.0 | 0.00 | 0.00 | 0.00 | 77 | 1019.2 |
| 20260904071303 | 46 | 0 | 0.0 | 0.0 | 0.00 | 0.00 | 0.00 | 77 | 1019.1 |
| 20260904071203 | 46 | 0 | 0.0 | 0.0 | 0.00 | 0.00 | 0.00 | 77 | 1019.0 |
| 20260904071103 | 47 | 0 | 0.0 | 0.0 | 0.00 | 0.00 | 0.00 | 77 | 1019.2 |
| 20260904071003 | 47 | 0 | 0.0 | 0.0 | 0.00 | 0.00 | 0.00 | 77 | 1019.1 |
| 20260904070903 | 47 | 0 | 0.0 | 0.0 | 0.00 | 0.00 | 0.00 | 77 | 1019.4 |
| 20260904070803 | 47 | 0 | 0.0 | 0.0 | 0.00 | 0.00 | 0.00 | 76 | 1019.2 |
| 20260904070703 | 47 | 0 | 0.0 | 0.0 | 0.00 | 0.00 | 0.00 | 76 | 1019.1 |
| 20260904070603 | 47 | 0 | 0.0 | 0.0 | 0.00 | 0.00 | 0.00 | 76 | 1019.1 |
| 20260904070503 | 47 | 0 | 0.0 | 0.0 | 0.00 | 0.00 | 0.00 | 76 | 1019.1 |
| 20260904070403 | 47 | 0 | 0.0 | 0.0 | 0.00 | 0.00 | 0.00 | 76 | 1019.3 |
| 20260904070303 | 47 | 0 | 0.0 | 0.0 | 0.00 | 0.00 | 0.00 | 76 | 1019.3 |
| 20260904070203 | 47 | 0 | 0.0 | 0.0 | 0.00 | 0.00 | 0.00 | 76 | 1019.6 |
| 20260904070004 | 47 | 0 | 0.0 | 0.0 | 0.00 | 0.00 | 0.00 | 76 | 1019.3 |
| 20260904065903 | 47 | 0 | 0.0 | 0.0 | 0.00 | 0.00 | 0.00 | 76 | 1019.5 |
| 20260904065803 | 47 | 0 | 0.0 | 0.0 | 0.00 | 0.00 | 0.00 | 76 | 1019.2 |
| 20260904065703 | 47 | 0 | 0.0 | 0.0 | 0.00 | 0.00 | 0.00 | 75 | 1019.2 |
| 20260904065603 | 47 | 0 | 0.0 | 0.0 | 0.00 | 0.00 | 0.00 | 76 | 1019.4 |
| 20260904065503 | 48 | 0 | 0.0 | 0.0 | 0.00 | 0.00 | 0.00 | 76 | 1019.3 |
| 20260904065306 | 48 | 0 | 0.0 | 0.0 | 0.00 | 0.00 | 0.00 | 75 | 1019.3 |
| 20260904065203 | 48 | 0 | 0.0 | 0.0 | 0.00 | 0.00 | 0.00 | 75 | 1019.1 |
| 20260904065003 | 48 | 0 | 0.0 | 0.0 | 0.00 | 0.00 | 0.00 | 75 | 1019.3 |
| 20260904064903 | 48 | 0 | 0.0 | 0.0 | 0.00 | 0.00 | 0.00 | 75 | 1019.3 |
| 20260904064804 | 48 | 0 | 0.0 | 0.0 | 0.00 | 0.00 | 0.00 | 75 | 1019.3 |
| 20260904064703 | 48 | 0 | 0.0 | 0.0 | 0.00 | 0.00 | 0.00 | 75 | 1019.2 |
| 20260904064603 | 48 | 0 | 0.0 | 0.0 | 0.00 | 0.00 | 0.00 | 74 | 1019.2 |
| 20260904064503 | 48 | 0 | 0.0 | 0.0 | 0.00 | 0.00 | 0.00 | 74 | 1019.3 |
| 20260904064403 | 48 | 0 | 0.0 | 0.0 | 0.00 | 0.00 | 0.00 | 74 | 1019.0 |
| 20260904064303 | 48 | 0 | 0.0 | 0.0 | 0.00 | 0.00 | 0.00 | 73 | 1019.3 |
| 20260904064203 | 48 | 0 | 0.0 | 0.0 | 0.00 | 0.00 | 0.00 | 73 | 1019.3 |
| 20260904064103 | 49 | 0 | 0.0 | 0.0 | 0.00 | 0.00 | 0.00 | 73 | 1019.2 |
| 20260904064017 | 49 | 0 | 0.0 | 0.0 | 0.00 | 0.00 | 0.00 | 73 | 1019.1 |
| 20260904063903 | 49 | 0 | 0.0 | 0.0 | 0.00 | 0.00 | 0.00 | 72 | 1019.4 |
| 20260904063818 | 49 | 0 | 0.0 | 0.0 | 0.00 | 0.00 | 0.00 | 72 | 1019.3 |
| 20260904063703 | 49 | 0 | 0.0 | 0.0 | 0.00 | 0.00 | 0.00 | 71 | 1019.4 |
| 20260904063617 | 49 | 0 | 0.0 | 0.0 | 0.00 | 0.00 | 0.00 | 71 | 1019.3 |
| 20260904063503 | 49 | 0 | 0.0 | 0.0 | 0.00 | 0.00 | 0.00 | 70 | 1019.4 |
| 20260904063305 | 49 | 0 | 0.0 | 0.0 | 0.00 | 0.00 | 0.00 | 70 | 1019.3 |
| 20260904063203 | 49 | 0 | 0.0 | 0.0 | 0.00 | 0.00 | 0.00 | 70 | 1019.1 |
| 20260904063118 | 49 | 0 | 0.0 | 0.0 | 0.00 | 0.00 | 0.00 | 71 | 1019.5 |
| 20260904063103 | 49 | 0 | 0.0 | 0.0 | 0.00 | 0.00 | 0.00 | 71 | 1019.4 |
| 20260904063003 | 49 | 0 | 0.0 | 0.0 | 0.00 | 0.00 | 0.00 | 71 | 1019.2 |
| 20260904062803 | 49 | 0 | 0.0 | 0.0 | 0.00 | 0.00 | 0.00 | 72 | 1019.6 |
| 20260904062703 | 49 | 0 | 0.0 | 0.0 | 0.00 | 0.00 | 0.00 | 72 | 1019.5 |
| 20260904062617 | 49 | 0 | 0.0 | 0.0 | 0.00 | 0.00 | 0.00 | 72 | 1019.2 |
| 20260904062503 | 49 | 0 | 0.0 | 0.0 | 0.00 | 0.00 | 0.00 | 72 | 1019.6 |
| 20260904062306 | 49 | 0 | 0.0 | 0.0 | 0.00 | 0.00 | 0.00 | 72 | 1019.3 |
| 20260904062203 | 49 | 0 | 0.0 | 0.0 | 0.00 | 0.00 | 0.00 | 72 | 1019.3 |
| 20260904062003 | 49 | 0 | 0.0 | 0.0 | 0.00 | 0.00 | 0.00 | 72 | 1019.5 |
| 20260904061903 | 49 | 0 | 0.0 | 0.0 | 0.00 | 0.00 | 0.00 | 72 | 1019.6 |
| 20260904061803 | 49 | 0 | 0.0 | 0.0 | 0.00 | 0.00 | 0.00 | 72 | 1019.4 |
| 20260904061703 | 49 | 0 | 0.0 | 0.0 | 0.00 | 0.00 | 0.00 | 72 | 1019.5 |
| 20260904061603 | 49 | 0 | 0.0 | 0.0 | 0.00 | 0.00 | 0.00 | 72 | 1019.5 |
| 20260904061503 | 49 | 0 | 0.0 | 0.0 | 0.00 | 0.00 | 0.00 | 73 | 1019.6 |
| 20260904061303 | 49 | 0 | 0.0 | 0.0 | 0.00 | 0.00 | 0.00 | 72 | 1019.3 |
| 20260904061203 | 49 | 0 | 0.0 | 0.0 | 0.00 | 0.00 | 0.00 | 72 | 1019.4 |
| 20260904061118 | 49 | 0 | 0.0 | 0.0 | 0.00 | 0.00 | 0.00 | 72 | 1019.6 |
| 20260904061103 | 49 | 0 | 0.0 | 0.0 | 0.00 | 0.00 | 0.00 | 72 | 1019.4 |
| 20260904061003 | 49 | 0 | 0.0 | 0.0 | 0.00 | 0.00 | 0.00 | 73 | 1019.4 |